Wetterdaten: Samstag, 10.12.2016
Datum Zeit Temp. A. Feuchte A. Luftdruck Regen Wind Richtung Richtung Sonnenschein ET UV Solar Taupunkt Windchill Windben Empfang
10.12.2016 00:00 3,1 C 87 % 1031,0 hPa 0,0 l/m 0,6 km/h (0 Bft) S 172 0 min 0,000 mm 0,0 UV-I 0 W/m 1,2 C 3,1 C 1,6 km/h (1 Bft) 95,74 %
10.12.2016 00:02 3,1 C 87 % 1030,9 hPa 0,0 l/m 2,0 km/h (1 Bft) S 172 0 min 0,000 mm 0,0 UV-I 0 W/m 1,2 C 3,1 C 3,2 km/h (1 Bft) 95,24 %
10.12.2016 00:04 3,1 C 87 % 1030,9 hPa 0,0 l/m 2,5 km/h (1 Bft) S 172 0 min 0,000 mm 0,0 UV-I 0 W/m 1,2 C 3,1 C 4,8 km/h (1 Bft) 100,00 %
10.12.2016 00:06 3,1 C 87 % 1030,8 hPa 0,0 l/m 2,2 km/h (1 Bft) S 172 0 min 0,000 mm 0,0 UV-I 0 W/m 1,2 C 3,1 C 3,2 km/h (1 Bft) 96,00 %
10.12.2016 00:08 3,1 C 88 % 1030,9 hPa 0,0 l/m 0,4 km/h (0 Bft) S 172 0 min 0,000 mm 0,0 UV-I 0 W/m 1,3 C 3,1 C 1,6 km/h (1 Bft) 98,00 %
10.12.2016 00:10 3,0 C 88 % 1030,9 hPa 0,0 l/m 0,1 km/h (0 Bft) S 172 0 min 0,000 mm 0,0 UV-I 0 W/m 1,2 C 3,0 C 1,6 km/h (1 Bft) 97,73 %
10.12.2016 00:12 2,9 C 88 % 1030,9 hPa 0,0 l/m 0,0 km/h (0 Bft) S 172 0 min 0,000 mm 0,0 UV-I 0 W/m 1,1 C 2,9 C 0,0 km/h (0 Bft) 97,87 %
10.12.2016 00:14 2,9 C 88 % 1030,9 hPa 0,0 l/m 0,4 km/h (0 Bft) S 172 0 min 0,000 mm 0,0 UV-I 0 W/m 1,1 C 2,9 C 1,6 km/h (1 Bft) 100,00 %
10.12.2016 00:16 2,9 C 88 % 1030,9 hPa 0,0 l/m 0,0 km/h (0 Bft) S 172 0 min 0,000 mm 0,0 UV-I 0 W/m 1,1 C 2,9 C 0,0 km/h (0 Bft) 100,00 %
10.12.2016 00:18 2,9 C 88 % 1030,8 hPa 0,0 l/m 0,3 km/h (0 Bft) S 172 0 min 0,000 mm 0,0 UV-I 0 W/m 1,1 C 2,9 C 3,2 km/h (1 Bft) 100,00 %
10.12.2016 00:20 3,1 C 88 % 1030,8 hPa 0,0 l/m 1,1 km/h (1 Bft) S 172 0 min 0,000 mm 0,0 UV-I 0 W/m 1,3 C 3,1 C 3,2 km/h (1 Bft) 97,87 %
10.12.2016 00:22 3,1 C 87 % 1030,8 hPa 0,0 l/m 0,3 km/h (0 Bft) S 172 0 min 0,000 mm 0,0 UV-I 0 W/m 1,2 C 3,1 C 1,6 km/h (1 Bft) 100,00 %
10.12.2016 00:24 3,2 C 86 % 1030,7 hPa 0,0 l/m 0,5 km/h (0 Bft) S 172 0 min 0,000 mm 0,0 UV-I 0 W/m 1,1 C 3,2 C 1,6 km/h (1 Bft) 100,00 %
10.12.2016 00:26 3,2 C 86 % 1030,7 hPa 0,0 l/m 1,3 km/h (1 Bft) S 172 0 min 0,000 mm 0,0 UV-I 0 W/m 1,1 C 3,2 C 3,2 km/h (1 Bft) 100,00 %
10.12.2016 00:28 3,2 C 86 % 1030,7 hPa 0,0 l/m 1,6 km/h (1 Bft) S 172 0 min 0,000 mm 0,0 UV-I 0 W/m 1,1 C 3,2 C 3,2 km/h (1 Bft) 100,00 %
10.12.2016 00:30 3,2 C 87 % 1030,7 hPa 0,0 l/m 2,3 km/h (1 Bft) S 172 0 min 0,000 mm 0,0 UV-I 0 W/m 1,2 C 3,2 C 3,2 km/h (1 Bft) 100,00 %
10.12.2016 00:32 3,2 C 87 % 1030,6 hPa 0,0 l/m 2,2 km/h (1 Bft) S 172 0 min 0,000 mm 0,0 UV-I 0 W/m 1,2 C 3,2 C 3,2 km/h (1 Bft) 100,00 %
10.12.2016 00:34 3,3 C 86 % 1030,6 hPa 0,0 l/m 2,1 km/h (1 Bft) S 172 0 min 0,000 mm 0,0 UV-I 0 W/m 1,2 C 3,3 C 4,8 km/h (1 Bft) 98,00 %
10.12.2016 00:36 3,3 C 86 % 1030,6 hPa 0,0 l/m 1,7 km/h (1 Bft) S 172 0 min 0,000 mm 0,0 UV-I 0 W/m 1,2 C 3,3 C 4,8 km/h (1 Bft) 98,00 %
10.12.2016 00:38 3,3 C 86 % 1030,5 hPa 0,0 l/m 2,8 km/h (1 Bft) S 172 0 min 0,000 mm 0,0 UV-I 0 W/m 1,2 C 3,3 C 4,8 km/h (1 Bft) 100,00 %
10.12.2016 00:40 3,3 C 86 % 1030,5 hPa 0,0 l/m 3,8 km/h (1 Bft) S 172 0 min 0,000 mm 0,0 UV-I 0 W/m 1,2 C 3,3 C 4,8 km/h (1 Bft) 98,00 %
10.12.2016 00:42 3,3 C 86 % 1030,6 hPa 0,0 l/m 3,6 km/h (1 Bft) S 172 0 min 0,000 mm 0,0 UV-I 0 W/m 1,2 C 3,3 C 4,8 km/h (1 Bft) 100,00 %
10.12.2016 00:44 3,2 C 86 % 1030,6 hPa 0,0 l/m 2,9 km/h (1 Bft) S 172 0 min 0,000 mm 0,0 UV-I 0 W/m 1,1 C 3,2 C 4,8 km/h (1 Bft) 100,00 %
10.12.2016 00:46 3,2 C 87 % 1030,6 hPa 0,0 l/m 2,1 km/h (1 Bft) S 173 0 min 0,000 mm 0,0 UV-I 0 W/m 1,2 C 3,2 C 4,8 km/h (1 Bft) 100,00 %
10.12.2016 00:48 3,1 C 87 % 1030,6 hPa 0,0 l/m 2,8 km/h (1 Bft) S 172 0 min 0,000 mm 0,0 UV-I 0 W/m 1,2 C 3,1 C 3,2 km/h (1 Bft) 98,00 %
10.12.2016 00:50 3,1 C 88 % 1030,6 hPa 0,0 l/m 2,9 km/h (1 Bft) S 172 0 min 0,000 mm 0,0 UV-I 0 W/m 1,3 C 3,1 C 3,2 km/h (1 Bft) 100,00 %
10.12.2016 00:52 2,9 C 88 % 1030,6 hPa 0,0 l/m 3,8 km/h (1 Bft) S 173 0 min 0,000 mm 0,0 UV-I 0 W/m 1,1 C 2,9 C 4,8 km/h (1 Bft) 100,00 %
10.12.2016 00:54 2,9 C 88 % 1030,5 hPa 0,0 l/m 3,0 km/h (1 Bft) S 173 0 min 0,000 mm 0,0 UV-I 0 W/m 1,1 C 2,9 C 4,8 km/h (1 Bft) 100,00 %
10.12.2016 00:56 2,9 C 89 % 1030,5 hPa 0,0 l/m 3,2 km/h (1 Bft) S 173 0 min 0,000 mm 0,0 UV-I 0 W/m 1,3 C 2,9 C 4,8 km/h (1 Bft) 100,00 %
10.12.2016 00:58 2,9 C 88 % 1030,5 hPa 0,0 l/m 2,5 km/h (1 Bft) S 173 0 min 0,000 mm 0,0 UV-I 0 W/m 1,1 C 2,9 C 4,8 km/h (1 Bft) 100,00 %
10.12.2016 01:00 3,0 C 88 % 1030,4 hPa 0,0 l/m 2,0 km/h (1 Bft) S 173 0 min 0,000 mm 0,0 UV-I 0 W/m 1,2 C 3,0 C 4,8 km/h (1 Bft) 100,00 %
10.12.2016 01:02 3,1 C 88 % 1030,4 hPa 0,0 l/m 2,5 km/h (1 Bft) S 173 0 min 0,000 mm 0,0 UV-I 0 W/m 1,3 C 3,1 C 4,8 km/h (1 Bft) 100,00 %
10.12.2016 01:04 3,0 C 88 % 1030,4 hPa 0,0 l/m 2,8 km/h (1 Bft) S 173 0 min 0,000 mm 0,0 UV-I 0 W/m 1,2 C 3,0 C 4,8 km/h (1 Bft) 100,00 %
10.12.2016 01:06 3,1 C 88 % 1030,4 hPa 0,0 l/m 2,3 km/h (1 Bft) S 173 0 min 0,000 mm 0,0 UV-I 0 W/m 1,3 C 3,1 C 4,8 km/h (1 Bft) 100,00 %
10.12.2016 01:08 3,1 C 88 % 1030,3 hPa 0,0 l/m 1,1 km/h (1 Bft) S 173 0 min 0,000 mm 0,0 UV-I 0 W/m 1,3 C 3,1 C 3,2 km/h (1 Bft) 100,00 %
10.12.2016 01:10 3,2 C 87 % 1030,3 hPa 0,0 l/m 1,7 km/h (1 Bft) S 173 0 min 0,000 mm 0,0 UV-I 0 W/m 1,2 C 3,2 C 3,2 km/h (1 Bft) 100,00 %
10.12.2016 01:12 3,2 C 87 % 1030,2 hPa 0,0 l/m 2,0 km/h (1 Bft) S 173 0 min 0,000 mm 0,0 UV-I 0 W/m 1,2 C 3,2 C 3,2 km/h (1 Bft) 100,00 %
10.12.2016 01:14 3,3 C 86 % 1030,3 hPa 0,0 l/m 1,0 km/h (0 Bft) S 173 0 min 0,000 mm 0,0 UV-I 0 W/m 1,2 C 3,3 C 3,2 km/h (1 Bft) 100,00 %
10.12.2016 01:16 3,3 C 86 % 1030,3 hPa 0,0 l/m 2,7 km/h (1 Bft) S 173 0 min 0,000 mm 0,0 UV-I 0 W/m 1,2 C 3,3 C 4,8 km/h (1 Bft) 100,00 %
10.12.2016 01:18 3,4 C 86 % 1030,3 hPa 0,0 l/m 3,6 km/h (1 Bft) S 173 0 min 0,000 mm 0,0 UV-I 0 W/m 1,3 C 3,4 C 8,0 km/h (2 Bft) 100,00 %
10.12.2016 01:20 3,5 C 86 % 1030,2 hPa 0,0 l/m 2,7 km/h (1 Bft) S 173 0 min 0,000 mm 0,0 UV-I 0 W/m 1,4 C 3,5 C 4,8 km/h (1 Bft) 94,00 %
10.12.2016 01:22 3,6 C 85 % 1030,3 hPa 0,0 l/m 1,6 km/h (1 Bft) S 173 0 min 0,000 mm 0,0 UV-I 0 W/m 1,3 C 3,6 C 3,2 km/h (1 Bft) 100,00 %
10.12.2016 01:24 3,7 C 85 % 1030,2 hPa 0,0 l/m 2,8 km/h (1 Bft) S 173 0 min 0,000 mm 0,0 UV-I 0 W/m 1,4 C 3,7 C 4,8 km/h (1 Bft) 97,92 %
10.12.2016 01:26 3,7 C 85 % 1030,1 hPa 0,0 l/m 1,6 km/h (1 Bft) S 173 0 min 0,000 mm 0,0 UV-I 0 W/m 1,4 C 3,7 C 3,2 km/h (1 Bft) 100,00 %
10.12.2016 01:28 3,7 C 85 % 1030,1 hPa 0,0 l/m 3,3 km/h (1 Bft) S 177 0 min 0,000 mm 0,0 UV-I 0 W/m 1,4 C 3,7 C 4,8 km/h (1 Bft) 100,00 %
10.12.2016 01:30 3,7 C 85 % 1030,1 hPa 0,0 l/m 2,3 km/h (1 Bft) S 177 0 min 0,000 mm 0,0 UV-I 0 W/m 1,4 C 3,7 C 6,4 km/h (2 Bft) 97,44 %
10.12.2016 01:32 3,7 C 85 % 1030,1 hPa 0,0 l/m 2,1 km/h (1 Bft) S 177 0 min 0,000 mm 0,0 UV-I 0 W/m 1,4 C 3,7 C 4,8 km/h (1 Bft) 100,00 %
10.12.2016 01:34 3,7 C 85 % 1030,1 hPa 0,0 l/m 1,1 km/h (1 Bft) S 177 0 min 0,000 mm 0,0 UV-I 0 W/m 1,4 C 3,7 C 3,2 km/h (1 Bft) 100,00 %
10.12.2016 01:36 3,7 C 85 % 1030,0 hPa 0,0 l/m 2,3 km/h (1 Bft) S 177 0 min 0,000 mm 0,0 UV-I 0 W/m 1,4 C 3,7 C 4,8 km/h (1 Bft) 100,00 %
10.12.2016 01:38 3,7 C 85 % 1030,0 hPa 0,0 l/m 2,8 km/h (1 Bft) S 177 0 min 0,000 mm 0,0 UV-I 0 W/m 1,4 C 3,7 C 4,8 km/h (1 Bft) 100,00 %
10.12.2016 01:40 3,7 C 85 % 1030,0 hPa 0,0 l/m 1,5 km/h (1 Bft) S 177 0 min 0,000 mm 0,0 UV-I 0 W/m 1,4 C 3,7 C 4,8 km/h (1 Bft) 100,00 %
10.12.2016 01:42 3,7 C 85 % 1030,0 hPa 0,0 l/m 2,1 km/h (1 Bft) S 177 0 min 0,000 mm 0,0 UV-I 0 W/m 1,4 C 3,7 C 3,2 km/h (1 Bft) 100,00 %
10.12.2016 01:44 3,7 C 85 % 1030,0 hPa 0,0 l/m 0,9 km/h (0 Bft) S 177 0 min 0,000 mm 0,0 UV-I 0 W/m 1,4 C 3,7 C 3,2 km/h (1 Bft) 100,00 %
10.12.2016 01:46 3,6 C 85 % 1030,0 hPa 0,0 l/m 1,8 km/h (1 Bft) S 177 0 min 0,000 mm 0,0 UV-I 0 W/m 1,3 C 3,6 C 3,2 km/h (1 Bft) 100,00 %
10.12.2016 01:48 3,6 C 86 % 1030,0 hPa 0,0 l/m 2,6 km/h (1 Bft) S 177 0 min 0,000 mm 0,0 UV-I 0 W/m 1,5 C 3,6 C 4,8 km/h (1 Bft) 98,00 %
10.12.2016 01:50 3,6 C 86 % 1029,9 hPa 0,0 l/m 1,0 km/h (0 Bft) S 177 0 min 0,000 mm 0,0 UV-I 0 W/m 1,5 C 3,6 C 1,6 km/h (1 Bft) 97,56 %
10.12.2016 01:52 3,5 C 86 % 1029,9 hPa 0,0 l/m 1,1 km/h (1 Bft) S 177 0 min 0,000 mm 0,0 UV-I 0 W/m 1,4 C 3,5 C 3,2 km/h (1 Bft) 95,74 %
10.12.2016 01:54 3,4 C 87 % 1029,9 hPa 0,0 l/m 1,5 km/h (1 Bft) S 177 0 min 0,000 mm 0,0 UV-I 0 W/m 1,4 C 3,4 C 3,2 km/h (1 Bft) 95,74 %
10.12.2016 01:56 3,4 C 87 % 1029,9 hPa 0,0 l/m 2,1 km/h (1 Bft) S 177 0 min 0,000 mm 0,0 UV-I 0 W/m 1,4 C 3,4 C 3,2 km/h (1 Bft) 98,00 %
10.12.2016 01:58 3,4 C 87 % 1029,9 hPa 0,0 l/m 2,5 km/h (1 Bft) S 177 0 min 0,000 mm 0,0 UV-I 0 W/m 1,4 C 3,4 C 4,8 km/h (1 Bft) 95,12 %
10.12.2016 02:00 3,6 C 86 % 1029,9 hPa 0,0 l/m 3,2 km/h (1 Bft) S 177 0 min 0,000 mm 0,0 UV-I 0 W/m 1,5 C 3,6 C 4,8 km/h (1 Bft) 96,23 %
10.12.2016 02:02 3,6 C 86 % 1029,9 hPa 0,0 l/m 3,8 km/h (1 Bft) S-SW 197 0 min 0,000 mm 0,0 UV-I 0 W/m 1,5 C 3,6 C 6,4 km/h (2 Bft) 96,30 %
10.12.2016 02:04 3,6 C 86 % 1029,8 hPa 0,0 l/m 4,2 km/h (1 Bft) S 185 0 min 0,000 mm 0,0 UV-I 0 W/m 1,5 C 3,6 C 6,4 km/h (2 Bft) 96,61 %
10.12.2016 02:06 3,6 C 85 % 1029,8 hPa 0,0 l/m 4,5 km/h (1 Bft) S-SW 210 0 min 0,000 mm 0,0 UV-I 0 W/m 1,3 C 3,6 C 8,0 km/h (2 Bft) 96,15 %
10.12.2016 02:08 3,6 C 85 % 1029,8 hPa 0,0 l/m 5,6 km/h (1 Bft) S-SW 205 0 min 0,000 mm 0,0 UV-I 0 W/m 1,3 C 3,6 C 8,0 km/h (2 Bft) 96,00 %
10.12.2016 02:10 3,6 C 85 % 1029,8 hPa 0,0 l/m 6,2 km/h (2 Bft) S-SW 198 0 min 0,000 mm 0,0 UV-I 0 W/m 1,3 C 3,6 C 8,0 km/h (2 Bft) 97,22 %
10.12.2016 02:12 3,6 C 85 % 1029,8 hPa 0,0 l/m 3,5 km/h (1 Bft) S 182 0 min 0,000 mm 0,0 UV-I 0 W/m 1,3 C 3,6 C 6,4 km/h (2 Bft) 98,00 %
10.12.2016 02:14 3,6 C 85 % 1029,8 hPa 0,0 l/m 3,6 km/h (1 Bft) S 173 0 min 0,000 mm 0,0 UV-I 0 W/m 1,3 C 3,6 C 6,4 km/h (2 Bft) 95,74 %
10.12.2016 02:16 3,6 C 85 % 1029,8 hPa 0,0 l/m 3,4 km/h (1 Bft) S 172 0 min 0,000 mm 0,0 UV-I 0 W/m 1,3 C 3,6 C 8,0 km/h (2 Bft) 98,00 %
10.12.2016 02:18 3,7 C 85 % 1029,8 hPa 0,0 l/m 3,3 km/h (1 Bft) S 180 0 min 0,000 mm 0,0 UV-I 0 W/m 1,4 C 3,7 C 6,4 km/h (2 Bft) 96,23 %
10.12.2016 02:20 3,7 C 85 % 1029,8 hPa 0,0 l/m 4,2 km/h (1 Bft) S 186 0 min 0,000 mm 0,0 UV-I 0 W/m 1,4 C 3,7 C 6,4 km/h (2 Bft) 100,00 %
10.12.2016 02:22 3,7 C 85 % 1029,8 hPa 0,0 l/m 3,7 km/h (1 Bft) S 186 0 min 0,000 mm 0,0 UV-I 0 W/m 1,4 C 3,7 C 4,8 km/h (1 Bft) 96,00 %
10.12.2016 02:24 3,7 C 85 % 1029,7 hPa 0,0 l/m 4,1 km/h (1 Bft) S 186 0 min 0,000 mm 0,0 UV-I 0 W/m 1,4 C 3,7 C 6,4 km/h (2 Bft) 98,00 %
10.12.2016 02:26 3,7 C 85 % 1029,7 hPa 0,0 l/m 3,0 km/h (1 Bft) S 186 0 min 0,000 mm 0,0 UV-I 0 W/m 1,4 C 3,7 C 4,8 km/h (1 Bft) 100,00 %
10.12.2016 02:28 3,7 C 85 % 1029,6 hPa 0,0 l/m 2,9 km/h (1 Bft) S 180 0 min 0,000 mm 0,0 UV-I 0 W/m 1,4 C 3,7 C 4,8 km/h (1 Bft) 100,00 %
10.12.2016 02:30 3,6 C 85 % 1029,7 hPa 0,0 l/m 2,5 km/h (1 Bft) S 180 0 min 0,000 mm 0,0 UV-I 0 W/m 1,3 C 3,6 C 4,8 km/h (1 Bft) 100,00 %
10.12.2016 02:32 3,6 C 85 % 1029,8 hPa 0,0 l/m 2,7 km/h (1 Bft) S 180 0 min 0,000 mm 0,0 UV-I 0 W/m 1,3 C 3,6 C 4,8 km/h (1 Bft) 98,21 %
10.12.2016 02:34 3,6 C 85 % 1029,8 hPa 0,0 l/m 4,3 km/h (1 Bft) S 181 0 min 0,000 mm 0,0 UV-I 0 W/m 1,3 C 3,6 C 6,4 km/h (2 Bft) 100,00 %
10.12.2016 02:36 3,6 C 85 % 1029,8 hPa 0,0 l/m 3,4 km/h (1 Bft) S 181 0 min 0,000 mm 0,0 UV-I 0 W/m 1,3 C 3,6 C 6,4 km/h (2 Bft) 100,00 %
10.12.2016 02:38 3,6 C 86 % 1029,8 hPa 0,0 l/m 2,0 km/h (1 Bft) S 181 0 min 0,000 mm 0,0 UV-I 0 W/m 1,5 C 3,6 C 4,8 km/h (1 Bft) 98,00 %
10.12.2016 02:40 3,6 C 86 % 1029,8 hPa 0,0 l/m 2,5 km/h (1 Bft) S 181 0 min 0,000 mm 0,0 UV-I 0 W/m 1,5 C 3,6 C 3,2 km/h (1 Bft) 100,00 %
10.12.2016 02:42 3,5 C 86 % 1029,8 hPa 0,0 l/m 3,2 km/h (1 Bft) S 181 0 min 0,000 mm 0,0 UV-I 0 W/m 1,4 C 3,5 C 4,8 km/h (1 Bft) 100,00 %
10.12.2016 02:44 3,5 C 86 % 1029,8 hPa 0,0 l/m 3,8 km/h (1 Bft) S 182 0 min 0,000 mm 0,0 UV-I 0 W/m 1,4 C 3,5 C 6,4 km/h (2 Bft) 100,00 %
10.12.2016 02:46 3,5 C 86 % 1029,7 hPa 0,0 l/m 2,7 km/h (1 Bft) S 182 0 min 0,000 mm 0,0 UV-I 0 W/m 1,4 C 3,5 C 4,8 km/h (1 Bft) 100,00 %
10.12.2016 02:48 3,4 C 86 % 1029,7 hPa 0,0 l/m 2,1 km/h (1 Bft) S 180 0 min 0,000 mm 0,0 UV-I 0 W/m 1,3 C 3,4 C 3,2 km/h (1 Bft) 100,00 %
10.12.2016 02:50 3,4 C 86 % 1029,7 hPa 0,0 l/m 3,1 km/h (1 Bft) S 182 0 min 0,000 mm 0,0 UV-I 0 W/m 1,3 C 3,4 C 6,4 km/h (2 Bft) 97,87 %
10.12.2016 02:52 3,4 C 86 % 1029,7 hPa 0,0 l/m 2,6 km/h (1 Bft) S 182 0 min 0,000 mm 0,0 UV-I 0 W/m 1,3 C 3,4 C 4,8 km/h (1 Bft) 100,00 %
10.12.2016 02:54 3,4 C 86 % 1029,7 hPa 0,0 l/m 3,5 km/h (1 Bft) S 182 0 min 0,000 mm 0,0 UV-I 0 W/m 1,3 C 3,4 C 4,8 km/h (1 Bft) 100,00 %
10.12.2016 02:56 3,4 C 85 % 1029,7 hPa 0,0 l/m 2,7 km/h (1 Bft) S 182 0 min 0,000 mm 0,0 UV-I 0 W/m 1,1 C 3,4 C 4,8 km/h (1 Bft) 100,00 %
10.12.2016 02:58 3,3 C 85 % 1029,6 hPa 0,0 l/m 2,1 km/h (1 Bft) S 182 0 min 0,000 mm 0,0 UV-I 0 W/m 1,0 C 3,3 C 3,2 km/h (1 Bft) 100,00 %
10.12.2016 03:00 3,3 C 85 % 1029,6 hPa 0,0 l/m 2,7 km/h (1 Bft) S 182 0 min 0,000 mm 0,0 UV-I 0 W/m 1,0 C 3,3 C 3,2 km/h (1 Bft) 100,00 %
10.12.2016 03:02 3,4 C 85 % 1029,5 hPa 0,0 l/m 2,0 km/h (1 Bft) S 182 0 min 0,000 mm 0,0 UV-I 0 W/m 1,1 C 3,4 C 3,2 km/h (1 Bft) 100,00 %
10.12.2016 03:04 3,3 C 85 % 1029,5 hPa 0,0 l/m 3,6 km/h (1 Bft) S 182 0 min 0,000 mm 0,0 UV-I 0 W/m 1,0 C 3,3 C 4,8 km/h (1 Bft) 100,00 %
10.12.2016 03:06 3,3 C 85 % 1029,5 hPa 0,0 l/m 3,3 km/h (1 Bft) S 182 0 min 0,000 mm 0,0 UV-I 0 W/m 1,0 C 3,3 C 6,4 km/h (2 Bft) 100,00 %
10.12.2016 03:08 3,3 C 85 % 1029,5 hPa 0,0 l/m 3,1 km/h (1 Bft) S-SW 196 0 min 0,000 mm 0,0 UV-I 0 W/m 1,0 C 3,3 C 8,0 km/h (2 Bft) 97,87 %
10.12.2016 03:10 3,3 C 85 % 1029,4 hPa 0,0 l/m 3,0 km/h (1 Bft) S-SW 196 0 min 0,000 mm 0,0 UV-I 0 W/m 1,0 C 3,3 C 4,8 km/h (1 Bft) 100,00 %
10.12.2016 03:12 3,4 C 85 % 1029,4 hPa 0,0 l/m 2,8 km/h (1 Bft) S-SW 195 0 min 0,000 mm 0,0 UV-I 0 W/m 1,1 C 3,4 C 4,8 km/h (1 Bft) 97,37 %
10.12.2016 03:14 3,4 C 84 % 1029,4 hPa 0,0 l/m 2,3 km/h (1 Bft) S-SW 195 0 min 0,000 mm 0,0 UV-I 0 W/m 1,0 C 3,4 C 4,8 km/h (1 Bft) 100,00 %
10.12.2016 03:16 3,4 C 84 % 1029,4 hPa 0,0 l/m 3,3 km/h (1 Bft) S-SW 195 0 min 0,000 mm 0,0 UV-I 0 W/m 1,0 C 3,4 C 4,8 km/h (1 Bft) 100,00 %
10.12.2016 03:19 3,4 C 84 % 1029,4 hPa 0,0 l/m 2,0 km/h (1 Bft) S 181 0 min 0,000 mm 0,0 UV-I 0 W/m 1,0 C 3,4 C 3,2 km/h (1 Bft) 95,38 %
10.12.2016 03:20 3,4 C 84 % 1029,4 hPa 0,0 l/m 2,2 km/h (1 Bft) S-SO 167 0 min 0,000 mm 0,0 UV-I 0 W/m 1,0 C 3,4 C 4,8 km/h (1 Bft) 100,00 %
10.12.2016 03:22 3,4 C 84 % 1029,4 hPa 0,0 l/m 3,0 km/h (1 Bft) S-SO 167 0 min 0,000 mm 0,0 UV-I 0 W/m 1,0 C 3,4 C 6,4 km/h (2 Bft) 100,00 %
10.12.2016 03:24 3,4 C 83 % 1029,3 hPa 0,0 l/m 2,7 km/h (1 Bft) S-SO 166 0 min 0,000 mm 0,0 UV-I 0 W/m 0,8 C 3,4 C 4,8 km/h (1 Bft) 100,00 %
10.12.2016 03:26 3,4 C 83 % 1029,3 hPa 0,0 l/m 2,4 km/h (1 Bft) S-SO 167 0 min 0,000 mm 0,0 UV-I 0 W/m 0,8 C 3,4 C 8,0 km/h (2 Bft) 100,00 %
10.12.2016 03:28 3,4 C 83 % 1029,3 hPa 0,0 l/m 5,0 km/h (1 Bft) S 169 0 min 0,000 mm 0,0 UV-I 0 W/m 0,8 C 3,4 C 8,0 km/h (2 Bft) 100,00 %
10.12.2016 03:30 3,4 C 83 % 1029,3 hPa 0,0 l/m 4,6 km/h (1 Bft) S 191 0 min 0,000 mm 0,0 UV-I 0 W/m 0,8 C 3,4 C 8,0 km/h (2 Bft) 100,00 %
10.12.2016 03:32 3,4 C 83 % 1029,2 hPa 0,0 l/m 4,7 km/h (1 Bft) S-SW 202 0 min 0,000 mm 0,0 UV-I 0 W/m 0,8 C 3,4 C 8,0 km/h (2 Bft) 100,00 %
10.12.2016 03:34 3,4 C 83 % 1029,1 hPa 0,0 l/m 4,7 km/h (1 Bft) S-SW 211 0 min 0,000 mm 0,0 UV-I 0 W/m 0,8 C 3,4 C 9,7 km/h (2 Bft) 100,00 %
10.12.2016 03:36 3,4 C 84 % 1029,2 hPa 0,0 l/m 4,7 km/h (1 Bft) S-SW 211 0 min 0,000 mm 0,0 UV-I 0 W/m 1,0 C 3,4 C 6,4 km/h (2 Bft) 100,00 %
10.12.2016 03:38 3,4 C 84 % 1029,2 hPa 0,0 l/m 3,6 km/h (1 Bft) S-SW 203 0 min 0,000 mm 0,0 UV-I 0 W/m 1,0 C 3,4 C 6,4 km/h (2 Bft) 100,00 %
10.12.2016 03:40 3,3 C 84 % 1029,1 hPa 0,0 l/m 3,5 km/h (1 Bft) S-SW 202 0 min 0,000 mm 0,0 UV-I 0 W/m 0,9 C 3,3 C 6,4 km/h (2 Bft) 98,00 %
10.12.2016 03:42 3,3 C 84 % 1029,1 hPa 0,0 l/m 4,1 km/h (1 Bft) S-SW 200 0 min 0,000 mm 0,0 UV-I 0 W/m 0,9 C 3,3 C 4,8 km/h (1 Bft) 100,00 %
10.12.2016 03:44 3,3 C 85 % 1029,1 hPa 0,0 l/m 3,4 km/h (1 Bft) S-SW 200 0 min 0,000 mm 0,0 UV-I 0 W/m 1,0 C 3,3 C 6,4 km/h (2 Bft) 100,00 %
10.12.2016 03:46 3,2 C 85 % 1029,1 hPa 0,0 l/m 4,2 km/h (1 Bft) S 190 0 min 0,000 mm 0,0 UV-I 0 W/m 0,9 C 3,2 C 8,0 km/h (2 Bft) 98,00 %
10.12.2016 03:48 3,2 C 85 % 1029,1 hPa 0,0 l/m 3,0 km/h (1 Bft) S-SW 197 0 min 0,000 mm 0,0 UV-I 0 W/m 0,9 C 3,2 C 6,4 km/h (2 Bft) 100,00 %
10.12.2016 03:50 3,2 C 85 % 1029,1 hPa 0,0 l/m 2,9 km/h (1 Bft) S-SW 197 0 min 0,000 mm 0,0 UV-I 0 W/m 0,9 C 3,2 C 4,8 km/h (1 Bft) 100,00 %
10.12.2016 03:52 3,2 C 85 % 1029,0 hPa 0,0 l/m 3,9 km/h (1 Bft) S-SW 197 0 min 0,000 mm 0,0 UV-I 0 W/m 0,9 C 3,2 C 4,8 km/h (1 Bft) 98,11 %
10.12.2016 03:54 3,2 C 85 % 1029,0 hPa 0,0 l/m 4,3 km/h (1 Bft) S-SW 211 0 min 0,000 mm 0,0 UV-I 0 W/m 0,9 C 3,2 C 6,4 km/h (2 Bft) 100,00 %
10.12.2016 03:56 3,2 C 85 % 1029,0 hPa 0,0 l/m 2,2 km/h (1 Bft) S-SW 210 0 min 0,000 mm 0,0 UV-I 0 W/m 0,9 C 3,2 C 4,8 km/h (1 Bft) 97,87 %
10.12.2016 03:58 3,2 C 85 % 1029,0 hPa 0,0 l/m 2,3 km/h (1 Bft) S-SW 207 0 min 0,000 mm 0,0 UV-I 0 W/m 0,9 C 3,2 C 4,8 km/h (1 Bft) 100,00 %
10.12.2016 04:00 3,2 C 85 % 1029,0 hPa 0,0 l/m 3,1 km/h (1 Bft) S-SW 207 0 min 0,000 mm 0,0 UV-I 0 W/m 0,9 C 3,2 C 6,4 km/h (2 Bft) 97,62 %
10.12.2016 04:02 3,2 C 85 % 1029,0 hPa 0,0 l/m 3,5 km/h (1 Bft) S-SW 207 0 min 0,000 mm 0,0 UV-I 0 W/m 0,9 C 3,2 C 4,8 km/h (1 Bft) 100,00 %
10.12.2016 04:04 3,2 C 85 % 1029,0 hPa 0,0 l/m 2,8 km/h (1 Bft) S-SW 207 0 min 0,000 mm 0,0 UV-I 0 W/m 0,9 C 3,2 C 3,2 km/h (1 Bft) 97,62 %
10.12.2016 04:06 3,2 C 85 % 1029,0 hPa 0,0 l/m 1,9 km/h (1 Bft) S-SW 207 0 min 0,000 mm 0,0 UV-I 0 W/m 0,9 C 3,2 C 3,2 km/h (1 Bft) 96,23 %
10.12.2016 04:08 3,1 C 85 % 1029,0 hPa 0,0 l/m 2,6 km/h (1 Bft) S-SW 210 0 min 0,000 mm 0,0 UV-I 0 W/m 0,8 C 3,1 C 6,4 km/h (2 Bft) 97,87 %
10.12.2016 04:10 3,1 C 85 % 1028,9 hPa 0,0 l/m 3,2 km/h (1 Bft) S-SW 204 0 min 0,000 mm 0,0 UV-I 0 W/m 0,8 C 3,1 C 4,8 km/h (1 Bft) 97,87 %
10.12.2016 04:12 3,1 C 85 % 1029,0 hPa 0,0 l/m 3,4 km/h (1 Bft) S-SW 206 0 min 0,000 mm 0,0 UV-I 0 W/m 0,8 C 3,1 C 6,4 km/h (2 Bft) 97,56 %
10.12.2016 04:14 3,1 C 85 % 1028,9 hPa 0,0 l/m 2,6 km/h (1 Bft) S-SW 206 0 min 0,000 mm 0,0 UV-I 0 W/m 0,8 C 3,1 C 4,8 km/h (1 Bft) 96,00 %
10.12.2016 04:16 3,1 C 85 % 1028,9 hPa 0,0 l/m 4,8 km/h (1 Bft) SW 223 0 min 0,000 mm 0,0 UV-I 0 W/m 0,8 C 3,1 C 6,4 km/h (2 Bft) 98,00 %
10.12.2016 04:18 3,1 C 85 % 1028,8 hPa 0,0 l/m 4,5 km/h (1 Bft) SW 221 0 min 0,000 mm 0,0 UV-I 0 W/m 0,8 C 3,1 C 6,4 km/h (2 Bft) 97,56 %
10.12.2016 04:20 3,2 C 84 % 1028,9 hPa 0,0 l/m 3,0 km/h (1 Bft) SW 221 0 min 0,000 mm 0,0 UV-I 0 W/m 0,8 C 3,2 C 4,8 km/h (1 Bft) 94,64 %
10.12.2016 04:22 3,2 C 84 % 1028,9 hPa 0,0 l/m 3,5 km/h (1 Bft) SW 223 0 min 0,000 mm 0,0 UV-I 0 W/m 0,8 C 3,2 C 6,4 km/h (2 Bft) 97,87 %
10.12.2016 04:24 3,2 C 84 % 1028,9 hPa 0,0 l/m 3,2 km/h (1 Bft) SW 225 0 min 0,000 mm 0,0 UV-I 0 W/m 0,8 C 3,2 C 4,8 km/h (1 Bft) 97,87 %
10.12.2016 04:26 3,2 C 83 % 1028,9 hPa 0,0 l/m 1,0 km/h (0 Bft) SW 225 0 min 0,000 mm 0,0 UV-I 0 W/m 0,6 C 3,2 C 3,2 km/h (1 Bft) 97,87 %
10.12.2016 04:28 3,2 C 84 % 1029,0 hPa 0,0 l/m 2,2 km/h (1 Bft) SW 225 0 min 0,000 mm 0,0 UV-I 0 W/m 0,8 C 3,2 C 3,2 km/h (1 Bft) 97,37 %
10.12.2016 04:30 3,2 C 83 % 1028,9 hPa 0,0 l/m 3,3 km/h (1 Bft) SW 225 0 min 0,000 mm 0,0 UV-I 0 W/m 0,6 C 3,2 C 4,8 km/h (1 Bft) 98,00 %
10.12.2016 04:32 3,2 C 83 % 1028,9 hPa 0,0 l/m 3,5 km/h (1 Bft) SW 225 0 min 0,000 mm 0,0 UV-I 0 W/m 0,6 C 3,2 C 4,8 km/h (1 Bft) 98,11 %
10.12.2016 04:34 3,2 C 83 % 1028,9 hPa 0,0 l/m 4,0 km/h (1 Bft) SW 226 0 min 0,000 mm 0,0 UV-I 0 W/m 0,6 C 3,2 C 4,8 km/h (1 Bft) 97,14 %
10.12.2016 04:36 3,2 C 83 % 1028,9 hPa 0,0 l/m 3,9 km/h (1 Bft) SW 221 0 min 0,000 mm 0,0 UV-I 0 W/m 0,6 C 3,2 C 4,8 km/h (1 Bft) 100,00 %
10.12.2016 04:38 3,1 C 84 % 1028,8 hPa 0,0 l/m 3,0 km/h (1 Bft) SW 219 0 min 0,000 mm 0,0 UV-I 0 W/m 0,7 C 3,1 C 4,8 km/h (1 Bft) 98,00 %
10.12.2016 04:40 3,0 C 84 % 1028,8 hPa 0,0 l/m 4,4 km/h (1 Bft) S-SW 213 0 min 0,000 mm 0,0 UV-I 0 W/m 0,6 C 3,0 C 6,4 km/h (2 Bft) 100,00 %
10.12.2016 04:42 3,0 C 84 % 1028,8 hPa 0,0 l/m 2,2 km/h (1 Bft) S-SW 212 0 min 0,000 mm 0,0 UV-I 0 W/m 0,6 C 3,0 C 4,8 km/h (1 Bft) 100,00 %
10.12.2016 04:44 2,9 C 84 % 1028,8 hPa 0,0 l/m 3,8 km/h (1 Bft) S 186 0 min 0,000 mm 0,0 UV-I 0 W/m 0,5 C 2,9 C 6,4 km/h (2 Bft) 100,00 %
10.12.2016 04:46 2,9 C 84 % 1028,7 hPa 0,0 l/m 4,6 km/h (1 Bft) S-SW 207 0 min 0,000 mm 0,0 UV-I 0 W/m 0,5 C 2,9 C 9,7 km/h (2 Bft) 100,00 %
10.12.2016 04:48 2,9 C 84 % 1028,7 hPa 0,0 l/m 4,9 km/h (1 Bft) S-SW 207 0 min 0,000 mm 0,0 UV-I 0 W/m 0,5 C 2,9 C 8,0 km/h (2 Bft) 100,00 %
10.12.2016 04:50 2,8 C 84 % 1028,7 hPa 0,0 l/m 5,4 km/h (1 Bft) S-SW 207 0 min 0,000 mm 0,0 UV-I 0 W/m 0,4 C 2,8 C 9,7 km/h (2 Bft) 100,00 %
10.12.2016 04:52 2,8 C 84 % 1028,6 hPa 0,0 l/m 5,9 km/h (2 Bft) S-SW 209 0 min 0,000 mm 0,0 UV-I 0 W/m 0,4 C 2,8 C 9,7 km/h (2 Bft) 100,00 %
10.12.2016 04:54 2,7 C 85 % 1028,6 hPa 0,0 l/m 4,3 km/h (1 Bft) S-SW 209 0 min 0,000 mm 0,0 UV-I 0 W/m 0,4 C 2,7 C 8,0 km/h (2 Bft) 98,00 %
10.12.2016 04:56 2,6 C 85 % 1028,6 hPa 0,0 l/m 3,8 km/h (1 Bft) S-SW 209 0 min 0,000 mm 0,0 UV-I 0 W/m 0,3 C 2,6 C 6,4 km/h (2 Bft) 100,00 %
10.12.2016 04:58 2,5 C 85 % 1028,7 hPa 0,0 l/m 5,1 km/h (1 Bft) S-SW 205 0 min 0,000 mm 0,0 UV-I 0 W/m 0,2 C 2,5 C 8,0 km/h (2 Bft) 100,00 %
10.12.2016 05:00 2,4 C 85 % 1028,7 hPa 0,0 l/m 3,5 km/h (1 Bft) SW 215 0 min 0,000 mm 0,0 UV-I 0 W/m 0,1 C 2,4 C 8,0 km/h (2 Bft) 100,00 %
10.12.2016 05:02 2,4 C 85 % 1028,8 hPa 0,0 l/m 2,2 km/h (1 Bft) S-SW 204 0 min 0,000 mm 0,0 UV-I 0 W/m 0,1 C 2,4 C 6,4 km/h (2 Bft) 97,87 %
10.12.2016 05:04 2,3 C 85 % 1028,8 hPa 0,0 l/m 1,3 km/h (1 Bft) S-SW 204 0 min 0,000 mm 0,0 UV-I 0 W/m 0,0 C 2,3 C 4,8 km/h (1 Bft) 100,00 %
10.12.2016 05:06 2,2 C 85 % 1028,8 hPa 0,0 l/m 1,3 km/h (1 Bft) S-SW 204 0 min 0,000 mm 0,0 UV-I 0 W/m -0,1 C 2,2 C 3,2 km/h (1 Bft) 98,00 %
10.12.2016 05:08 2,1 C 86 % 1028,8 hPa 0,0 l/m 1,6 km/h (1 Bft) S-SW 200 0 min 0,000 mm 0,0 UV-I 0 W/m 0,0 C 2,1 C 3,2 km/h (1 Bft) 100,00 %
10.12.2016 05:10 2,1 C 86 % 1028,8 hPa 0,0 l/m 1,6 km/h (1 Bft) S-SW 200 0 min 0,000 mm 0,0 UV-I 0 W/m 0,0 C 2,1 C 3,2 km/h (1 Bft) 100,00 %
10.12.2016 05:12 1,9 C 86 % 1028,8 hPa 0,0 l/m 0,9 km/h (0 Bft) S-SW 200 0 min 0,000 mm 0,0 UV-I 0 W/m -0,2 C 1,9 C 3,2 km/h (1 Bft) 100,00 %
10.12.2016 05:14 1,9 C 87 % 1028,8 hPa 0,0 l/m 1,1 km/h (1 Bft) S-SW 200 0 min 0,000 mm 0,0 UV-I 0 W/m -0,0 C 1,9 C 3,2 km/h (1 Bft) 100,00 %
10.12.2016 05:16 1,8 C 87 % 1028,7 hPa 0,0 l/m 2,9 km/h (1 Bft) S-SW 200 0 min 0,000 mm 0,0 UV-I 0 W/m -0,1 C 1,8 C 4,8 km/h (1 Bft) 100,00 %
10.12.2016 05:18 1,8 C 87 % 1028,7 hPa 0,0 l/m 3,0 km/h (1 Bft) S-SW 200 0 min 0,000 mm 0,0 UV-I 0 W/m -0,1 C 1,8 C 4,8 km/h (1 Bft) 100,00 %
10.12.2016 05:20 1,7 C 87 % 1028,7 hPa 0,0 l/m 2,3 km/h (1 Bft) S-SW 200 0 min 0,000 mm 0,0 UV-I 0 W/m -0,2 C 1,7 C 3,2 km/h (1 Bft) 100,00 %
10.12.2016 05:22 1,7 C 88 % 1028,6 hPa 0,0 l/m 3,1 km/h (1 Bft) S-SW 200 0 min 0,000 mm 0,0 UV-I 0 W/m -0,1 C 1,7 C 4,8 km/h (1 Bft) 97,22 %
10.12.2016 05:24 1,7 C 88 % 1028,6 hPa 0,0 l/m 3,3 km/h (1 Bft) S-SW 200 0 min 0,000 mm 0,0 UV-I 0 W/m -0,1 C 1,7 C 4,8 km/h (1 Bft) 98,00 %
10.12.2016 05:26 1,7 C 88 % 1028,7 hPa 0,0 l/m 3,3 km/h (1 Bft) S-SW 200 0 min 0,000 mm 0,0 UV-I 0 W/m -0,1 C 1,7 C 4,8 km/h (1 Bft) 100,00 %
10.12.2016 05:28 1,7 C 88 % 1028,6 hPa 0,0 l/m 2,6 km/h (1 Bft) S-SW 200 0 min 0,000 mm 0,0 UV-I 0 W/m -0,1 C 1,7 C 4,8 km/h (1 Bft) 100,00 %
10.12.2016 05:30 1,7 C 88 % 1028,6 hPa 0,0 l/m 3,1 km/h (1 Bft) S-SW 200 0 min 0,000 mm 0,0 UV-I 0 W/m -0,1 C 1,7 C 4,8 km/h (1 Bft) 100,00 %
10.12.2016 05:32 1,7 C 88 % 1028,6 hPa 0,0 l/m 2,7 km/h (1 Bft) S-SW 200 0 min 0,000 mm 0,0 UV-I 0 W/m -0,1 C 1,7 C 4,8 km/h (1 Bft) 100,00 %
10.12.2016 05:34 1,7 C 88 % 1028,5 hPa 0,0 l/m 3,2 km/h (1 Bft) S-SW 200 0 min 0,000 mm 0,0 UV-I 0 W/m -0,1 C 1,7 C 4,8 km/h (1 Bft) 98,11 %
10.12.2016 05:36 1,7 C 88 % 1028,6 hPa 0,0 l/m 2,4 km/h (1 Bft) S-SW 200 0 min 0,000 mm 0,0 UV-I 0 W/m -0,1 C 1,7 C 4,8 km/h (1 Bft) 100,00 %
10.12.2016 05:38 1,7 C 88 % 1028,6 hPa 0,0 l/m 2,4 km/h (1 Bft) S-SW 194 0 min 0,000 mm 0,0 UV-I 0 W/m -0,1 C 1,7 C 4,8 km/h (1 Bft) 100,00 %
10.12.2016 05:40 1,7 C 87 % 1028,5 hPa 0,0 l/m 2,3 km/h (1 Bft) S-SW 194 0 min 0,000 mm 0,0 UV-I 0 W/m -0,2 C 1,7 C 3,2 km/h (1 Bft) 100,00 %
10.12.2016 05:42 1,7 C 87 % 1028,5 hPa 0,0 l/m 2,8 km/h (1 Bft) S-SW 192 0 min 0,000 mm 0,0 UV-I 0 W/m -0,2 C 1,7 C 4,8 km/h (1 Bft) 100,00 %
10.12.2016 05:44 1,7 C 88 % 1028,5 hPa 0,0 l/m 3,6 km/h (1 Bft) S 177 0 min 0,000 mm 0,0 UV-I 0 W/m -0,1 C 1,7 C 6,4 km/h (2 Bft) 98,21 %
10.12.2016 05:46 1,7 C 88 % 1028,5 hPa 0,0 l/m 4,3 km/h (1 Bft) S 182 0 min 0,000 mm 0,0 UV-I 0 W/m -0,1 C 1,7 C 8,0 km/h (2 Bft) 97,56 %
10.12.2016 05:48 1,8 C 87 % 1028,5 hPa 0,0 l/m 4,0 km/h (1 Bft) S 180 0 min 0,000 mm 0,0 UV-I 0 W/m -0,1 C 1,8 C 6,4 km/h (2 Bft) 100,00 %
10.12.2016 05:50 1,8 C 87 % 1028,5 hPa 0,0 l/m 4,4 km/h (1 Bft) S 176 0 min 0,000 mm 0,0 UV-I 0 W/m -0,1 C 1,8 C 9,7 km/h (2 Bft) 100,00 %
10.12.2016 05:52 1,8 C 87 % 1028,5 hPa 0,0 l/m 4,1 km/h (1 Bft) S 181 0 min 0,000 mm 0,0 UV-I 0 W/m -0,1 C 1,8 C 8,0 km/h (2 Bft) 100,00 %
10.12.2016 05:54 1,8 C 87 % 1028,5 hPa 0,0 l/m 5,7 km/h (1 Bft) S 178 0 min 0,000 mm 0,0 UV-I 0 W/m -0,1 C 1,8 C 11,3 km/h (2 Bft) 100,00 %
10.12.2016 05:56 1,8 C 87 % 1028,4 hPa 0,0 l/m 4,7 km/h (1 Bft) S 176 0 min 0,000 mm 0,0 UV-I 0 W/m -0,1 C 1,8 C 8,0 km/h (2 Bft) 100,00 %
10.12.2016 05:58 1,8 C 87 % 1028,4 hPa 0,0 l/m 5,7 km/h (1 Bft) S-SW 202 0 min 0,000 mm 0,0 UV-I 0 W/m -0,1 C 1,8 C 8,0 km/h (2 Bft) 100,00 %
10.12.2016 06:00 1,8 C 87 % 1028,4 hPa 0,0 l/m 5,6 km/h (1 Bft) S-SW 198 0 min 0,000 mm 0,0 UV-I 0 W/m -0,1 C 1,8 C 9,7 km/h (2 Bft) 100,00 %
10.12.2016 06:02 1,7 C 87 % 1028,4 hPa 0,0 l/m 4,7 km/h (1 Bft) S-SW 198 0 min 0,000 mm 0,0 UV-I 0 W/m -0,2 C 1,7 C 6,4 km/h (2 Bft) 100,00 %
10.12.2016 06:04 1,7 C 87 % 1028,4 hPa 0,0 l/m 4,2 km/h (1 Bft) S 185 0 min 0,000 mm 0,0 UV-I 0 W/m -0,2 C 1,7 C 6,4 km/h (2 Bft) 100,00 %
10.12.2016 06:06 1,7 C 87 % 1028,4 hPa 0,0 l/m 3,9 km/h (1 Bft) S-SW 197 0 min 0,000 mm 0,0 UV-I 0 W/m -0,2 C 1,7 C 6,4 km/h (2 Bft) 95,92 %
10.12.2016 06:08 1,7 C 87 % 1028,5 hPa 0,0 l/m 4,3 km/h (1 Bft) S 190 0 min 0,000 mm 0,0 UV-I 0 W/m -0,2 C 1,7 C 6,4 km/h (2 Bft) 97,92 %
10.12.2016 06:10 1,7 C 87 % 1028,4 hPa 0,0 l/m 4,9 km/h (1 Bft) S-SW 192 0 min 0,000 mm 0,0 UV-I 0 W/m -0,2 C 1,7 C 6,4 km/h (2 Bft) 97,37 %
10.12.2016 06:12 1,6 C 87 % 1028,4 hPa 0,0 l/m 5,2 km/h (1 Bft) S-SW 213 0 min 0,000 mm 0,0 UV-I 0 W/m -0,3 C 1,6 C 8,0 km/h (2 Bft) 98,00 %
10.12.2016 06:14 1,6 C 87 % 1028,4 hPa 0,0 l/m 6,2 km/h (2 Bft) S-SW 209 0 min 0,000 mm 0,0 UV-I 0 W/m -0,3 C 1,6 C 9,7 km/h (2 Bft) 98,11 %
10.12.2016 06:16 1,6 C 87 % 1028,4 hPa 0,0 l/m 4,9 km/h (1 Bft) S-SW 200 0 min 0,000 mm 0,0 UV-I 0 W/m -0,3 C 1,6 C 6,4 km/h (2 Bft) 97,56 %
10.12.2016 06:18 1,6 C 87 % 1028,4 hPa 0,0 l/m 4,4 km/h (1 Bft) S-SW 206 0 min 0,000 mm 0,0 UV-I 0 W/m -0,3 C 1,6 C 6,4 km/h (2 Bft) 98,00 %
10.12.2016 06:20 1,6 C 87 % 1028,4 hPa 0,0 l/m 4,2 km/h (1 Bft) S-SW 206 0 min 0,000 mm 0,0 UV-I 0 W/m -0,3 C 1,6 C 6,4 km/h (2 Bft) 97,87 %
10.12.2016 06:22 1,6 C 87 % 1028,4 hPa 0,0 l/m 4,7 km/h (1 Bft) S-SW 198 0 min 0,000 mm 0,0 UV-I 0 W/m -0,3 C 1,6 C 8,0 km/h (2 Bft) 94,74 %
10.12.2016 06:24 1,6 C 87 % 1028,3 hPa 0,0 l/m 4,1 km/h (1 Bft) S-SW 199 0 min 0,000 mm 0,0 UV-I 0 W/m -0,3 C 1,6 C 6,4 km/h (2 Bft) 96,00 %
10.12.2016 06:26 1,5 C 87 % 1028,4 hPa 0,0 l/m 2,9 km/h (1 Bft) S-SW 198 0 min 0,000 mm 0,0 UV-I 0 W/m -0,4 C 1,5 C 4,8 km/h (1 Bft) 96,23 %
10.12.2016 06:28 1,5 C 87 % 1028,3 hPa 0,0 l/m 4,3 km/h (1 Bft) S-SW 198 0 min 0,000 mm 0,0 UV-I 0 W/m -0,4 C 1,5 C 6,4 km/h (2 Bft) 97,87 %
10.12.2016 06:30 1,4 C 87 % 1028,2 hPa 0,0 l/m 2,5 km/h (1 Bft) S-SW 198 0 min 0,000 mm 0,0 UV-I 0 W/m -0,5 C 1,4 C 4,8 km/h (1 Bft) 97,37 %
10.12.2016 06:32 1,4 C 87 % 1028,2 hPa 0,0 l/m 2,2 km/h (1 Bft) S-SW 194 0 min 0,000 mm 0,0 UV-I 0 W/m -0,5 C 1,4 C 4,8 km/h (1 Bft) 98,00 %
10.12.2016 06:34 1,4 C 88 % 1028,1 hPa 0,0 l/m 2,9 km/h (1 Bft) S 188 0 min 0,000 mm 0,0 UV-I 0 W/m -0,4 C 1,4 C 4,8 km/h (1 Bft) 96,00 %
10.12.2016 06:36 1,4 C 88 % 1028,1 hPa 0,0 l/m 2,4 km/h (1 Bft) S 169 0 min 0,000 mm 0,0 UV-I 0 W/m -0,4 C 1,4 C 3,2 km/h (1 Bft) 95,12 %
10.12.2016 06:38 1,3 C 88 % 1028,0 hPa 0,0 l/m 2,3 km/h (1 Bft) S 169 0 min 0,000 mm 0,0 UV-I 0 W/m -0,5 C 1,3 C 6,4 km/h (2 Bft) 100,00 %
10.12.2016 06:40 1,3 C 88 % 1028,0 hPa 0,0 l/m 3,2 km/h (1 Bft) S 171 0 min 0,000 mm 0,0 UV-I 0 W/m -0,5 C 1,3 C 6,4 km/h (2 Bft) 95,74 %
10.12.2016 06:42 1,3 C 88 % 1028,0 hPa 0,0 l/m 2,9 km/h (1 Bft) S 171 0 min 0,000 mm 0,0 UV-I 0 W/m -0,5 C 1,3 C 6,4 km/h (2 Bft) 94,34 %
10.12.2016 06:44 1,4 C 88 % 1028,0 hPa 0,0 l/m 2,4 km/h (1 Bft) S 170 0 min 0,000 mm 0,0 UV-I 0 W/m -0,4 C 1,4 C 6,4 km/h (2 Bft) 97,62 %
10.12.2016 06:46 1,4 C 88 % 1028,0 hPa 0,0 l/m 2,4 km/h (1 Bft) S 173 0 min 0,000 mm 0,0 UV-I 0 W/m -0,4 C 1,4 C 8,0 km/h (2 Bft) 100,00 %
10.12.2016 06:48 1,4 C 88 % 1028,0 hPa 0,0 l/m 2,4 km/h (1 Bft) S 173 0 min 0,000 mm 0,0 UV-I 0 W/m -0,4 C 1,4 C 3,2 km/h (1 Bft) 100,00 %
10.12.2016 06:50 1,4 C 87 % 1028,1 hPa 0,0 l/m 2,5 km/h (1 Bft) S 174 0 min 0,000 mm 0,0 UV-I 0 W/m -0,5 C 1,4 C 8,0 km/h (2 Bft) 100,00 %
10.12.2016 06:52 1,4 C 87 % 1028,1 hPa 0,0 l/m 1,9 km/h (1 Bft) S 174 0 min 0,000 mm 0,0 UV-I 0 W/m -0,5 C 1,4 C 3,2 km/h (1 Bft) 100,00 %
10.12.2016 06:54 1,3 C 87 % 1028,0 hPa 0,0 l/m 3,3 km/h (1 Bft) S 182 0 min 0,000 mm 0,0 UV-I 0 W/m -0,6 C 1,3 C 6,4 km/h (2 Bft) 100,00 %
10.12.2016 06:56 1,1 C 88 % 1028,0 hPa 0,0 l/m 2,5 km/h (1 Bft) S 182 0 min 0,000 mm 0,0 UV-I 0 W/m -0,7 C 1,1 C 4,8 km/h (1 Bft) 100,00 %
10.12.2016 06:58 1,0 C 88 % 1028,0 hPa 0,0 l/m 1,6 km/h (1 Bft) S 182 0 min 0,000 mm 0,0 UV-I 0 W/m -0,8 C 1,0 C 3,2 km/h (1 Bft) 100,00 %
10.12.2016 07:00 1,0 C 88 % 1028,0 hPa 0,0 l/m 2,1 km/h (1 Bft) S 182 0 min 0,000 mm 0,0 UV-I 0 W/m -0,8 C 1,0 C 3,2 km/h (1 Bft) 100,00 %
10.12.2016 07:02 1,0 C 88 % 1028,0 hPa 0,0 l/m 2,4 km/h (1 Bft) S 182 0 min 0,000 mm 0,0 UV-I 0 W/m -0,8 C 1,0 C 4,8 km/h (1 Bft) 100,00 %
10.12.2016 07:04 1,1 C 89 % 1027,9 hPa 0,0 l/m 2,5 km/h (1 Bft) S 182 0 min 0,000 mm 0,0 UV-I 0 W/m -0,5 C 1,1 C 4,8 km/h (1 Bft) 100,00 %
10.12.2016 07:06 1,2 C 89 % 1027,9 hPa 0,0 l/m 1,7 km/h (1 Bft) S 182 0 min 0,000 mm 0,0 UV-I 0 W/m -0,4 C 1,2 C 3,2 km/h (1 Bft) 97,87 %
10.12.2016 07:08 1,1 C 88 % 1027,9 hPa 0,0 l/m 1,8 km/h (1 Bft) S 182 0 min 0,000 mm 0,0 UV-I 0 W/m -0,7 C 1,1 C 4,8 km/h (1 Bft) 97,30 %
10.12.2016 07:10 1,1 C 88 % 1027,9 hPa 0,0 l/m 1,8 km/h (1 Bft) S 182 0 min 0,000 mm 0,0 UV-I 0 W/m -0,7 C 1,1 C 3,2 km/h (1 Bft) 97,87 %
10.12.2016 07:12 1,1 C 89 % 1027,9 hPa 0,0 l/m 2,5 km/h (1 Bft) S 178 0 min 0,000 mm 0,0 UV-I 0 W/m -0,5 C 1,1 C 4,8 km/h (1 Bft) 100,00 %
10.12.2016 07:14 1,1 C 89 % 1027,9 hPa 0,0 l/m 2,8 km/h (1 Bft) S 175 0 min 0,000 mm 0,0 UV-I 0 W/m -0,5 C 1,1 C 6,4 km/h (2 Bft) 100,00 %
10.12.2016 07:16 1,1 C 89 % 1027,9 hPa 0,0 l/m 2,2 km/h (1 Bft) S 179 0 min 0,000 mm 0,0 UV-I 0 W/m -0,5 C 1,1 C 4,8 km/h (1 Bft) 98,11 %
10.12.2016 07:18 1,1 C 89 % 1028,0 hPa 0,0 l/m 2,0 km/h (1 Bft) S 179 0 min 0,000 mm 0,0 UV-I 0 W/m -0,5 C 1,1 C 3,2 km/h (1 Bft) 100,00 %
10.12.2016 07:20 1,1 C 89 % 1028,0 hPa 0,0 l/m 0,8 km/h (0 Bft) S 179 0 min 0,000 mm 0,0 UV-I 0 W/m -0,5 C 1,1 C 3,2 km/h (1 Bft) 100,00 %
10.12.2016 07:22 1,1 C 88 % 1028,0 hPa 0,0 l/m 0,3 km/h (0 Bft) S 179 0 min 0,000 mm 0,0 UV-I 0 W/m -0,7 C 1,1 C 1,6 km/h (1 Bft) 100,00 %
10.12.2016 07:24 0,9 C 88 % 1028,0 hPa 0,0 l/m 2,3 km/h (1 Bft) S 179 0 min 0,000 mm 0,0 UV-I 0 W/m -0,9 C 0,9 C 3,2 km/h (1 Bft) 100,00 %
10.12.2016 07:26 0,8 C 89 % 1028,0 hPa 0,0 l/m 1,0 km/h (0 Bft) S 179 0 min 0,000 mm 0,0 UV-I 0 W/m -0,8 C 0,8 C 1,6 km/h (1 Bft) 100,00 %
10.12.2016 07:28 0,8 C 89 % 1027,9 hPa 0,0 l/m 1,1 km/h (1 Bft) S 179 0 min 0,000 mm 0,0 UV-I 0 W/m -0,8 C 0,8 C 3,2 km/h (1 Bft) 100,00 %
10.12.2016 07:30 0,8 C 89 % 1027,9 hPa 0,0 l/m 1,5 km/h (1 Bft) S 179 0 min 0,000 mm 0,0 UV-I 1 W/m -0,8 C 0,8 C 3,2 km/h (1 Bft) 100,00 %
10.12.2016 07:32 0,8 C 90 % 1027,9 hPa 0,0 l/m 1,9 km/h (1 Bft) S 179 0 min 0,000 mm 0,0 UV-I 5 W/m -0,6 C 0,8 C 3,2 km/h (1 Bft) 100,00 %
10.12.2016 07:34 0,8 C 90 % 1027,9 hPa 0,0 l/m 1,6 km/h (1 Bft) S 179 0 min 0,000 mm 0,0 UV-I 5 W/m -0,6 C 0,8 C 3,2 km/h (1 Bft) 96,00 %
10.12.2016 07:36 0,8 C 90 % 1027,9 hPa 0,0 l/m 2,0 km/h (1 Bft) S 179 0 min 0,000 mm 0,0 UV-I 6 W/m -0,6 C 0,8 C 3,2 km/h (1 Bft) 98,00 %
10.12.2016 07:38 0,9 C 89 % 1027,9 hPa 0,0 l/m 2,3 km/h (1 Bft) S 179 0 min 0,000 mm 0,0 UV-I 7 W/m -0,7 C 0,9 C 3,2 km/h (1 Bft) 100,00 %
10.12.2016 07:40 0,9 C 89 % 1027,9 hPa 0,0 l/m 1,6 km/h (1 Bft) S 179 0 min 0,000 mm 0,0 UV-I 7 W/m -0,7 C 0,9 C 3,2 km/h (1 Bft) 100,00 %
10.12.2016 07:42 0,9 C 90 % 1028,0 hPa 0,0 l/m 1,9 km/h (1 Bft) S 179 0 min 0,000 mm 0,0 UV-I 7 W/m -0,6 C 0,9 C 3,2 km/h (1 Bft) 100,00 %
10.12.2016 07:44 0,9 C 89 % 1028,0 hPa 0,0 l/m 1,6 km/h (1 Bft) S 179 0 min 0,000 mm 0,0 UV-I 8 W/m -0,7 C 0,9 C 3,2 km/h (1 Bft) 97,37 %
10.12.2016 07:46 0,9 C 89 % 1028,0 hPa 0,0 l/m 1,6 km/h (1 Bft) S 179 0 min 0,000 mm 0,0 UV-I 9 W/m -0,7 C 0,9 C 3,2 km/h (1 Bft) 100,00 %
10.12.2016 07:48 0,8 C 89 % 1027,9 hPa 0,0 l/m 1,4 km/h (1 Bft) S 179 0 min 0,000 mm 0,0 UV-I 10 W/m -0,8 C 0,8 C 3,2 km/h (1 Bft) 100,00 %
10.12.2016 07:50 0,9 C 90 % 1028,0 hPa 0,0 l/m 1,6 km/h (1 Bft) S 179 0 min 0,000 mm 0,0 UV-I 11 W/m -0,6 C 0,9 C 3,2 km/h (1 Bft) 100,00 %
10.12.2016 07:52 0,8 C 89 % 1028,0 hPa 0,0 l/m 1,3 km/h (1 Bft) S 179 0 min 0,000 mm 0,0 UV-I 12 W/m -0,8 C 0,8 C 3,2 km/h (1 Bft) 100,00 %
10.12.2016 07:54 0,8 C 89 % 1028,0 hPa 0,0 l/m 0,9 km/h (0 Bft) S 179 0 min 0,000 mm 0,0 UV-I 13 W/m -0,8 C 0,8 C 1,6 km/h (1 Bft) 100,00 %
10.12.2016 07:56 0,8 C 90 % 1028,0 hPa 0,0 l/m 2,2 km/h (1 Bft) S 179 2 min 0,000 mm 0,0 UV-I 14 W/m -0,6 C 0,8 C 3,2 km/h (1 Bft) 97,56 %
10.12.2016 07:58 0,7 C 90 % 1028,0 hPa 0,0 l/m 1,9 km/h (1 Bft) S 179 2 min 0,000 mm 0,0 UV-I 16 W/m -0,7 C 0,7 C 3,2 km/h (1 Bft) 100,00 %
10.12.2016 08:00 0,7 C 90 % 1028,0 hPa 0,0 l/m 2,0 km/h (1 Bft) S 179 2 min 0,000 mm 0,0 UV-I 18 W/m -0,7 C 0,7 C 3,2 km/h (1 Bft) 100,00 %
10.12.2016 08:02 0,7 C 90 % 1028,0 hPa 0,0 l/m 2,8 km/h (1 Bft) S 179 2 min 0,000 mm 0,0 UV-I 19 W/m -0,7 C 0,7 C 4,8 km/h (1 Bft) 97,62 %
10.12.2016 08:04 0,6 C 90 % 1028,0 hPa 0,0 l/m 2,9 km/h (1 Bft) S 179 2 min 0,000 mm 0,0 UV-I 20 W/m -0,8 C 0,6 C 4,8 km/h (1 Bft) 100,00 %
10.12.2016 08:06 0,6 C 90 % 1028,0 hPa 0,0 l/m 2,7 km/h (1 Bft) S 179 2 min 0,000 mm 0,0 UV-I 22 W/m -0,8 C 0,6 C 4,8 km/h (1 Bft) 100,00 %
10.12.2016 08:08 0,7 C 90 % 1028,1 hPa 0,0 l/m 1,2 km/h (1 Bft) S 179 2 min 0,000 mm 0,0 UV-I 25 W/m -0,7 C 0,7 C 3,2 km/h (1 Bft) 100,00 %
10.12.2016 08:10 0,7 C 91 % 1028,1 hPa 0,0 l/m 1,4 km/h (1 Bft) S 179 2 min 0,000 mm 0,0 UV-I 28 W/m -0,6 C 0,7 C 3,2 km/h (1 Bft) 97,14 %
10.12.2016 08:12 0,8 C 90 % 1028,1 hPa 0,0 l/m 1,0 km/h (0 Bft) S 179 2 min 0,000 mm 0,0 UV-I 41 W/m -0,6 C 0,8 C 1,6 km/h (1 Bft) 100,00 %
10.12.2016 08:14 0,9 C 90 % 1028,1 hPa 0,0 l/m 2,8 km/h (1 Bft) S 179 2 min 0,000 mm 0,0 UV-I 49 W/m -0,6 C 0,9 C 4,8 km/h (1 Bft) 100,00 %
10.12.2016 08:16 0,9 C 90 % 1028,1 hPa 0,0 l/m 2,2 km/h (1 Bft) S 179 2 min 0,000 mm 0,0 UV-I 44 W/m -0,6 C 0,9 C 3,2 km/h (1 Bft) 100,00 %
10.12.2016 08:18 1,0 C 90 % 1028,1 hPa 0,0 l/m 2,0 km/h (1 Bft) S 179 2 min 0,000 mm 0,0 UV-I 45 W/m -0,5 C 1,0 C 3,2 km/h (1 Bft) 96,92 %
10.12.2016 08:20 1,0 C 90 % 1028,1 hPa 0,0 l/m 2,5 km/h (1 Bft) S 179 2 min 0,000 mm 0,0 UV-I 57 W/m -0,5 C 1,0 C 3,2 km/h (1 Bft) 95,74 %
10.12.2016 08:22 1,1 C 90 % 1028,1 hPa 0,0 l/m 3,1 km/h (1 Bft) S 179 2 min 0,000 mm 0,0 UV-I 68 W/m -0,4 C 1,1 C 4,8 km/h (1 Bft) 98,00 %
10.12.2016 08:24 1,2 C 90 % 1028,1 hPa 0,0 l/m 3,3 km/h (1 Bft) S 179 2 min 0,000 mm 0,0 UV-I 63 W/m -0,3 C 1,2 C 4,8 km/h (1 Bft) 97,37 %
10.12.2016 08:26 1,2 C 89 % 1028,1 hPa 0,0 l/m 3,1 km/h (1 Bft) S 179 2 min 0,000 mm 0,0 UV-I 60 W/m -0,4 C 1,2 C 4,8 km/h (1 Bft) 95,74 %
10.12.2016 08:28 1,2 C 89 % 1028,1 hPa 0,0 l/m 2,5 km/h (1 Bft) S 179 2 min 0,000 mm 0,0 UV-I 73 W/m -0,4 C 1,2 C 3,2 km/h (1 Bft) 98,11 %
10.12.2016 08:30 1,2 C 89 % 1028,1 hPa 0,0 l/m 3,2 km/h (1 Bft) S 179 2 min 0,000 mm 0,0 UV-I 87 W/m -0,4 C 1,2 C 4,8 km/h (1 Bft) 97,87 %
10.12.2016 08:32 1,1 C 89 % 1028,1 hPa 0,0 l/m 3,1 km/h (1 Bft) S 179 2 min 0,000 mm 0,0 UV-I 92 W/m -0,5 C 1,1 C 4,8 km/h (1 Bft) 96,00 %
10.12.2016 08:34 1,1 C 89 % 1028,1 hPa 0,0 l/m 3,6 km/h (1 Bft) S 179 2 min 0,000 mm 0,0 UV-I 93 W/m -0,5 C 1,1 C 4,8 km/h (1 Bft) 97,37 %
10.12.2016 08:36 1,1 C 90 % 1028,1 hPa 0,0 l/m 3,5 km/h (1 Bft) S 179 2 min 0,000 mm 0,0 UV-I 98 W/m -0,4 C 1,1 C 4,8 km/h (1 Bft) 98,00 %
10.12.2016 08:38 1,1 C 90 % 1028,1 hPa 0,0 l/m 2,9 km/h (1 Bft) S 179 2 min 0,000 mm 0,0 UV-I 105 W/m -0,4 C 1,1 C 4,8 km/h (1 Bft) 97,87 %
10.12.2016 08:40 1,2 C 90 % 1028,2 hPa 0,0 l/m 3,2 km/h (1 Bft) S 179 2 min 0,000 mm 0,0 UV-I 102 W/m -0,3 C 1,2 C 4,8 km/h (1 Bft) 97,44 %
10.12.2016 08:42 1,2 C 90 % 1028,2 hPa 0,0 l/m 1,8 km/h (1 Bft) S 179 2 min 0,000 mm 0,0 UV-I 100 W/m -0,3 C 1,2 C 4,8 km/h (1 Bft) 98,00 %
10.12.2016 08:44 1,2 C 90 % 1028,2 hPa 0,0 l/m 1,9 km/h (1 Bft) S 179 2 min 0,000 mm 0,0 UV-I 109 W/m -0,3 C 1,2 C 4,8 km/h (1 Bft) 96,23 %
10.12.2016 08:46 1,2 C 90 % 1028,2 hPa 0,0 l/m 3,0 km/h (1 Bft) S 179 2 min 0,000 mm 0,0 UV-I 122 W/m -0,3 C 1,2 C 4,8 km/h (1 Bft) 100,00 %
10.12.2016 08:48 1,3 C 90 % 1028,2 hPa 0,0 l/m 2,1 km/h (1 Bft) S 179 2 min 0,000 mm 0,0 UV-I 124 W/m -0,2 C 1,3 C 3,2 km/h (1 Bft) 96,77 %
10.12.2016 08:50 1,3 C 90 % 1028,2 hPa 0,0 l/m 2,8 km/h (1 Bft) S 179 2 min 0,000 mm 0,0 UV-I 124 W/m -0,2 C 1,3 C 4,8 km/h (1 Bft) 97,87 %
10.12.2016 08:52 1,5 C 90 % 1028,2 hPa 0,0 l/m 4,3 km/h (1 Bft) S 180 2 min 0,000 mm 0,0 UV-I 130 W/m 0,0 C 1,5 C 4,8 km/h (1 Bft) 98,11 %
10.12.2016 08:54 1,6 C 89 % 1028,2 hPa 0,0 l/m 3,9 km/h (1 Bft) S 186 2 min 0,000 mm 0,0 UV-I 144 W/m -0,0 C 1,6 C 6,4 km/h (2 Bft) 100,00 %
10.12.2016 08:56 1,7 C 89 % 1028,2 hPa 0,0 l/m 3,2 km/h (1 Bft) S 186 2 min 0,000 mm 0,0 UV-I 151 W/m 0,1 C 1,7 C 4,8 km/h (1 Bft) 100,00 %
10.12.2016 08:58 1,8 C 89 % 1028,3 hPa 0,0 l/m 3,0 km/h (1 Bft) S 186 2 min 0,000 mm 0,0 UV-I 156 W/m 0,2 C 1,8 C 4,8 km/h (1 Bft) 100,00 %
10.12.2016 09:00 1,8 C 89 % 1028,2 hPa 0,0 l/m 2,9 km/h (1 Bft) S 186 2 min 0,025 mm 0,0 UV-I 143 W/m 0,2 C 1,8 C 4,8 km/h (1 Bft) 100,00 %
10.12.2016 09:02 1,8 C 88 % 1028,2 hPa 0,0 l/m 2,3 km/h (1 Bft) S 186 2 min 0,000 mm 0,0 UV-I 117 W/m 0,0 C 1,8 C 4,8 km/h (1 Bft) 100,00 %
10.12.2016 09:04 1,9 C 88 % 1028,3 hPa 0,0 l/m 2,7 km/h (1 Bft) S 186 2 min 0,000 mm 0,0 UV-I 124 W/m 0,1 C 1,9 C 4,8 km/h (1 Bft) 97,87 %
10.12.2016 09:06 1,9 C 88 % 1028,3 hPa 0,0 l/m 3,1 km/h (1 Bft) S 187 2 min 0,000 mm 0,0 UV-I 149 W/m 0,1 C 1,9 C 4,8 km/h (1 Bft) 98,00 %
10.12.2016 09:08 1,9 C 88 % 1028,3 hPa 0,0 l/m 2,3 km/h (1 Bft) S 187 2 min 0,000 mm 0,0 UV-I 169 W/m 0,1 C 1,9 C 4,8 km/h (1 Bft) 97,37 %
10.12.2016 09:10 2,0 C 88 % 1028,3 hPa 0,0 l/m 2,6 km/h (1 Bft) S 187 2 min 0,000 mm 0,0 UV-I 179 W/m 0,2 C 2,0 C 4,8 km/h (1 Bft) 100,00 %
10.12.2016 09:12 2,1 C 88 % 1028,2 hPa 0,0 l/m 3,1 km/h (1 Bft) S-SW 194 2 min 0,000 mm 0,0 UV-I 182 W/m 0,3 C 2,1 C 6,4 km/h (2 Bft) 100,00 %
10.12.2016 09:14 2,2 C 88 % 1028,2 hPa 0,0 l/m 2,8 km/h (1 Bft) S-SW 193 2 min 0,000 mm 0,0 UV-I 188 W/m 0,4 C 2,2 C 4,8 km/h (1 Bft) 100,00 %
10.12.2016 09:16 2,3 C 87 % 1028,2 hPa 0,0 l/m 2,7 km/h (1 Bft) S-SW 192 2 min 0,000 mm 0,0 UV-I 191 W/m 0,4 C 2,3 C 6,4 km/h (2 Bft) 100,00 %
10.12.2016 09:18 2,4 C 87 % 1028,2 hPa 0,0 l/m 2,2 km/h (1 Bft) S-SW 192 2 min 0,000 mm 0,0 UV-I 188 W/m 0,5 C 2,4 C 4,8 km/h (1 Bft) 100,00 %
10.12.2016 09:20 2,5 C 87 % 1028,2 hPa 0,0 l/m 3,3 km/h (1 Bft) S-SW 205 2 min 0,000 mm 0,0 UV-I 175 W/m 0,6 C 2,5 C 6,4 km/h (2 Bft) 100,00 %
10.12.2016 09:22 2,6 C 87 % 1028,2 hPa 0,0 l/m 4,5 km/h (1 Bft) S-SW 200 2 min 0,000 mm 0,0 UV-I 158 W/m 0,7 C 2,6 C 6,4 km/h (2 Bft) 100,00 %
10.12.2016 09:24 2,7 C 86 % 1028,2 hPa 0,0 l/m 2,2 km/h (1 Bft) S-SW 200 2 min 0,000 mm 0,0 UV-I 153 W/m 0,6 C 2,7 C 4,8 km/h (1 Bft) 100,00 %
10.12.2016 09:26 2,8 C 86 % 1028,1 hPa 0,0 l/m 2,6 km/h (1 Bft) S-SW 192 2 min 0,000 mm 0,0 UV-I 171 W/m 0,7 C 2,8 C 4,8 km/h (1 Bft) 98,00 %
10.12.2016 09:28 2,8 C 86 % 1028,2 hPa 0,0 l/m 2,3 km/h (1 Bft) S-SW 192 2 min 0,000 mm 0,0 UV-I 173 W/m 0,7 C 2,8 C 4,8 km/h (1 Bft) 100,00 %
10.12.2016 09:30 2,9 C 85 % 1028,1 hPa 0,0 l/m 2,6 km/h (1 Bft) S-SW 199 2 min 0,000 mm 0,0 UV-I 187 W/m 0,6 C 2,9 C 4,8 km/h (1 Bft) 100,00 %
10.12.2016 09:32 3,0 C 86 % 1028,1 hPa 0,0 l/m 3,3 km/h (1 Bft) S-SW 200 2 min 0,000 mm 0,0 UV-I 179 W/m 0,9 C 3,0 C 4,8 km/h (1 Bft) 100,00 %
10.12.2016 09:34 3,1 C 86 % 1028,2 hPa 0,0 l/m 3,6 km/h (1 Bft) S-SW 201 2 min 0,000 mm 0,0 UV-I 176 W/m 1,0 C 3,1 C 6,4 km/h (2 Bft) 100,00 %
10.12.2016 09:36 3,2 C 85 % 1028,1 hPa 0,0 l/m 2,8 km/h (1 Bft) S 190 2 min 0,000 mm 0,0 UV-I 175 W/m 0,9 C 3,2 C 4,8 km/h (1 Bft) 100,00 %
10.12.2016 09:38 3,2 C 85 % 1028,1 hPa 0,0 l/m 2,5 km/h (1 Bft) S 190 2 min 0,000 mm 0,0 UV-I 179 W/m 0,9 C 3,2 C 4,8 km/h (1 Bft) 97,87 %
10.12.2016 09:40 3,2 C 85 % 1028,2 hPa 0,0 l/m 3,0 km/h (1 Bft) S 190 2 min 0,000 mm 0,0 UV-I 180 W/m 0,9 C 3,2 C 4,8 km/h (1 Bft) 100,00 %
10.12.2016 09:42 3,3 C 85 % 1028,2 hPa 0,0 l/m 4,3 km/h (1 Bft) S-SW 192 2 min 0,000 mm 0,0 UV-I 183 W/m 1,0 C 3,3 C 6,4 km/h (2 Bft) 98,00 %
10.12.2016 09:44 3,3 C 85 % 1028,3 hPa 0,0 l/m 3,9 km/h (1 Bft) S-SW 196 2 min 0,000 mm 0,0 UV-I 198 W/m 1,0 C 3,3 C 6,4 km/h (2 Bft) 100,00 %
10.12.2016 09:46 3,4 C 85 % 1028,2 hPa 0,0 l/m 3,0 km/h (1 Bft) S-SW 198 2 min 0,000 mm 0,0 UV-I 198 W/m 1,1 C 3,4 C 6,4 km/h (2 Bft) 98,00 %
10.12.2016 09:48 3,4 C 84 % 1028,3 hPa 0,0 l/m 3,0 km/h (1 Bft) S-SW 197 2 min 0,000 mm 0,0 UV-I 193 W/m 1,0 C 3,4 C 4,8 km/h (1 Bft) 100,00 %
10.12.2016 09:50 3,5 C 84 % 1028,3 hPa 0,0 l/m 2,8 km/h (1 Bft) S 185 2 min 0,000 mm 0,0 UV-I 198 W/m 1,1 C 3,5 C 4,8 km/h (1 Bft) 100,00 %
10.12.2016 09:52 3,6 C 84 % 1028,3 hPa 0,0 l/m 3,4 km/h (1 Bft) S-SW 194 2 min 0,000 mm 0,0 UV-I 218 W/m 1,2 C 3,6 C 6,4 km/h (2 Bft) 100,00 %
10.12.2016 09:54 3,7 C 84 % 1028,3 hPa 0,0 l/m 2,2 km/h (1 Bft) S 188 2 min 0,000 mm 0,0 UV-I 249 W/m 1,3 C 3,7 C 4,8 km/h (1 Bft) 100,00 %
10.12.2016 09:56 3,7 C 84 % 1028,3 hPa 0,0 l/m 3,1 km/h (1 Bft) S 173 2 min 0,000 mm 0,0 UV-I 264 W/m 1,3 C 3,7 C 6,4 km/h (2 Bft) 97,56 %
10.12.2016 09:58 3,8 C 83 % 1028,2 hPa 0,0 l/m 2,3 km/h (1 Bft) S 178 2 min 0,000 mm 0,0 UV-I 267 W/m 1,2 C 3,8 C 4,8 km/h (1 Bft) 100,00 %
10.12.2016 10:00 3,9 C 83 % 1028,3 hPa 0,0 l/m 3,8 km/h (1 Bft) S 188 2 min 0,077 mm 0,0 UV-I 254 W/m 1,3 C 3,9 C 6,4 km/h (2 Bft) 100,00 %
10.12.2016 10:02 3,9 C 83 % 1028,3 hPa 0,0 l/m 4,6 km/h (1 Bft) S-SW 212 2 min 0,000 mm 0,0 UV-I 253 W/m 1,3 C 3,9 C 6,4 km/h (2 Bft) 98,00 %
10.12.2016 10:04 4,0 C 83 % 1028,2 hPa 0,0 l/m 3,1 km/h (1 Bft) S-SW 205 2 min 0,000 mm 0,0 UV-I 263 W/m 1,4 C 4,0 C 4,8 km/h (1 Bft) 96,00 %
10.12.2016 10:06 4,1 C 83 % 1028,2 hPa 0,0 l/m 3,0 km/h (1 Bft) S-SW 197 2 min 0,000 mm 0,0 UV-I 268 W/m 1,5 C 4,1 C 4,8 km/h (1 Bft) 97,87 %
10.12.2016 10:08 4,1 C 83 % 1028,2 hPa 0,0 l/m 3,6 km/h (1 Bft) S-SW 197 2 min 0,000 mm 0,0 UV-I 273 W/m 1,5 C 4,1 C 6,4 km/h (2 Bft) 97,37 %
10.12.2016 10:10 4,2 C 83 % 1028,2 hPa 0,0 l/m 3,8 km/h (1 Bft) S 190 2 min 0,000 mm 0,0 UV-I 263 W/m 1,6 C 4,2 C 6,4 km/h (2 Bft) 94,34 %
10.12.2016 10:12 4,3 C 83 % 1028,2 hPa 0,0 l/m 3,3 km/h (1 Bft) S-SW 192 2 min 0,000 mm 0,0 UV-I 256 W/m 1,7 C 4,3 C 4,8 km/h (1 Bft) 97,73 %
10.12.2016 10:14 4,3 C 83 % 1028,2 hPa 0,0 l/m 4,2 km/h (1 Bft) S-SW 192 2 min 0,000 mm 0,0 UV-I 233 W/m 1,7 C 4,3 C 6,4 km/h (2 Bft) 97,87 %
10.12.2016 10:16 4,4 C 82 % 1028,1 hPa 0,0 l/m 3,6 km/h (1 Bft) S 190 2 min 0,000 mm 0,2 UV-I 229 W/m 1,6 C 4,4 C 6,4 km/h (2 Bft) 98,00 %
10.12.2016 10:18 4,6 C 82 % 1028,1 hPa 0,0 l/m 5,0 km/h (1 Bft) SW 215 2 min 0,000 mm 0,5 UV-I 233 W/m 1,8 C 4,6 C 9,7 km/h (2 Bft) 97,87 %
10.12.2016 10:20 4,6 C 81 % 1028,1 hPa 0,0 l/m 4,7 km/h (1 Bft) SW 215 2 min 0,000 mm 0,5 UV-I 222 W/m 1,6 C 4,6 C 6,4 km/h (2 Bft) 97,87 %
10.12.2016 10:22 4,7 C 81 % 1028,0 hPa 0,0 l/m 4,6 km/h (1 Bft) S-SW 198 2 min 0,000 mm 0,5 UV-I 230 W/m 1,7 C 4,7 C 6,4 km/h (2 Bft) 94,00 %
10.12.2016 10:24 4,7 C 81 % 1028,0 hPa 0,0 l/m 3,4 km/h (1 Bft) S-SW 192 2 min 0,000 mm 0,5 UV-I 232 W/m 1,7 C 4,7 C 8,0 km/h (2 Bft) 97,56 %
10.12.2016 10:26 4,8 C 81 % 1028,0 hPa 0,0 l/m 4,2 km/h (1 Bft) S-SW 202 2 min 0,000 mm 0,5 UV-I 227 W/m 1,8 C 4,8 C 6,4 km/h (2 Bft) 96,00 %
10.12.2016 10:28 4,8 C 80 % 1028,0 hPa 0,0 l/m 3,9 km/h (1 Bft) S 188 2 min 0,000 mm 0,5 UV-I 224 W/m 1,6 C 4,8 C 6,4 km/h (2 Bft) 100,00 %
10.12.2016 10:30 4,9 C 80 % 1027,9 hPa 0,0 l/m 4,2 km/h (1 Bft) S-SW 192 2 min 0,000 mm 0,5 UV-I 230 W/m 1,7 C 4,9 C 6,4 km/h (2 Bft) 100,00 %
10.12.2016 10:32 4,9 C 80 % 1027,9 hPa 0,0 l/m 3,0 km/h (1 Bft) S-SW 192 2 min 0,000 mm 0,5 UV-I 239 W/m 1,7 C 4,9 C 4,8 km/h (1 Bft) 98,00 %
10.12.2016 10:34 5,0 C 80 % 1027,9 hPa 0,0 l/m 3,9 km/h (1 Bft) S-SW 205 2 min 0,000 mm 0,5 UV-I 238 W/m 1,8 C 5,0 C 6,4 km/h (2 Bft) 100,00 %
10.12.2016 10:36 5,1 C 79 % 1027,9 hPa 0,0 l/m 2,8 km/h (1 Bft) S-SW 196 2 min 0,000 mm 0,5 UV-I 229 W/m 1,8 C 5,1 C 6,4 km/h (2 Bft) 100,00 %
10.12.2016 10:38 5,1 C 79 % 1027,8 hPa 0,0 l/m 3,9 km/h (1 Bft) S-SW 194 2 min 0,000 mm 0,5 UV-I 235 W/m 1,8 C 5,1 C 6,4 km/h (2 Bft) 100,00 %
10.12.2016 10:40 5,2 C 79 % 1027,8 hPa 0,0 l/m 4,5 km/h (1 Bft) S-SW 199 2 min 0,000 mm 0,5 UV-I 239 W/m 1,9 C 5,2 C 6,4 km/h (2 Bft) 100,00 %
10.12.2016 10:42 5,2 C 79 % 1027,8 hPa 0,0 l/m 3,8 km/h (1 Bft) S 176 2 min 0,000 mm 0,6 UV-I 252 W/m 1,9 C 5,2 C 6,4 km/h (2 Bft) 100,00 %
10.12.2016 10:44 5,3 C 79 % 1027,7 hPa 0,0 l/m 3,5 km/h (1 Bft) S 190 2 min 0,000 mm 0,6 UV-I 268 W/m 2,0 C 5,3 C 6,4 km/h (2 Bft) 97,62 %
10.12.2016 10:46 5,4 C 79 % 1027,6 hPa 0,0 l/m 5,5 km/h (1 Bft) S 184 2 min 0,000 mm 0,6 UV-I 268 W/m 2,1 C 5,4 C 8,0 km/h (2 Bft) 100,00 %
10.12.2016 10:48 5,6 C 79 % 1027,5 hPa 0,0 l/m 5,7 km/h (1 Bft) SW 215 2 min 0,000 mm 0,6 UV-I 286 W/m 2,3 C 5,6 C 8,0 km/h (2 Bft) 100,00 %
10.12.2016 10:50 5,7 C 78 % 1027,4 hPa 0,0 l/m 6,0 km/h (2 Bft) S-SW 199 2 min 0,000 mm 0,6 UV-I 298 W/m 2,2 C 5,7 C 9,7 km/h (2 Bft) 100,00 %
10.12.2016 10:52 5,8 C 78 % 1027,4 hPa 0,0 l/m 6,8 km/h (2 Bft) S-SW 205 2 min 0,000 mm 0,6 UV-I 288 W/m 2,3 C 5,5 C 9,7 km/h (2 Bft) 100,00 %
10.12.2016 10:54 5,9 C 78 % 1027,4 hPa 0,0 l/m 5,5 km/h (1 Bft) S-SW 207 2 min 0,000 mm 0,6 UV-I 286 W/m 2,4 C 5,9 C 8,0 km/h (2 Bft) 100,00 %
10.12.2016 10:56 6,0 C 77 % 1027,4 hPa 0,0 l/m 5,5 km/h (1 Bft) S-SW 207 2 min 0,000 mm 0,6 UV-I 321 W/m 2,3 C 6,0 C 8,0 km/h (2 Bft) 100,00 %
10.12.2016 10:58 6,1 C 77 % 1027,4 hPa 0,0 l/m 6,3 km/h (2 Bft) SW 214 2 min 0,000 mm 0,6 UV-I 328 W/m 2,4 C 6,1 C 9,7 km/h (2 Bft) 100,00 %
10.12.2016 11:00 6,2 C 77 % 1027,4 hPa 0,0 l/m 5,8 km/h (2 Bft) S-SW 203 2 min 0,101 mm 0,7 UV-I 330 W/m 2,5 C 6,2 C 9,7 km/h (2 Bft) 98,00 %
10.12.2016 11:02 6,3 C 77 % 1027,3 hPa 0,0 l/m 5,1 km/h (1 Bft) S-SW 212 2 min 0,000 mm 0,7 UV-I 335 W/m 2,6 C 6,3 C 6,4 km/h (2 Bft) 100,00 %
10.12.2016 11:04 6,4 C 76 % 1027,2 hPa 0,0 l/m 6,8 km/h (2 Bft) S-SW 205 2 min 0,000 mm 0,7 UV-I 343 W/m 2,5 C 6,1 C 9,7 km/h (2 Bft) 100,00 %
10.12.2016 11:06 6,4 C 76 % 1027,3 hPa 0,0 l/m 3,5 km/h (1 Bft) SW 227 2 min 0,000 mm 0,7 UV-I 348 W/m 2,5 C 6,4 C 6,4 km/h (2 Bft) 100,00 %
10.12.2016 11:08 6,4 C 76 % 1027,3 hPa 0,0 l/m 2,4 km/h (1 Bft) SW 227 2 min 0,000 mm 0,7 UV-I 330 W/m 2,5 C 6,4 C 4,8 km/h (1 Bft) 100,00 %
10.12.2016 11:10 6,4 C 76 % 1027,3 hPa 0,0 l/m 3,6 km/h (1 Bft) W-SW 254 2 min 0,000 mm 0,7 UV-I 337 W/m 2,5 C 6,4 C 6,4 km/h (2 Bft) 100,00 %
10.12.2016 11:12 6,5 C 76 % 1027,4 hPa 0,0 l/m 2,5 km/h (1 Bft) W-SW 254 2 min 0,000 mm 0,7 UV-I 333 W/m 2,6 C 6,5 C 4,8 km/h (1 Bft) 100,00 %
10.12.2016 11:14 6,6 C 75 % 1027,4 hPa 0,0 l/m 3,6 km/h (1 Bft) W-SW 258 2 min 0,000 mm 0,7 UV-I 331 W/m 2,5 C 6,6 C 4,8 km/h (1 Bft) 100,00 %
10.12.2016 11:16 6,7 C 75 % 1027,4 hPa 0,0 l/m 2,0 km/h (1 Bft) W-SW 258 2 min 0,000 mm 0,7 UV-I 311 W/m 2,6 C 6,7 C 4,8 km/h (1 Bft) 100,00 %
10.12.2016 11:18 6,7 C 75 % 1027,4 hPa 0,0 l/m 2,7 km/h (1 Bft) W-SW 252 2 min 0,000 mm 0,7 UV-I 285 W/m 2,6 C 6,7 C 4,8 km/h (1 Bft) 100,00 %
10.12.2016 11:20 6,8 C 74 % 1027,4 hPa 0,0 l/m 2,2 km/h (1 Bft) W-SW 252 2 min 0,000 mm 0,7 UV-I 323 W/m 2,5 C 6,8 C 3,2 km/h (1 Bft) 100,00 %
10.12.2016 11:22 6,8 C 74 % 1027,3 hPa 0,0 l/m 1,3 km/h (1 Bft) W-SW 252 2 min 0,000 mm 0,7 UV-I 337 W/m 2,5 C 6,8 C 3,2 km/h (1 Bft) 98,53 %
10.12.2016 11:24 6,8 C 74 % 1027,3 hPa 0,0 l/m 2,7 km/h (1 Bft) W 259 2 min 0,000 mm 0,7 UV-I 330 W/m 2,5 C 6,8 C 4,8 km/h (1 Bft) 100,00 %
10.12.2016 11:26 6,9 C 74 % 1027,3 hPa 0,0 l/m 2,6 km/h (1 Bft) W 259 2 min 0,000 mm 0,7 UV-I 322 W/m 2,6 C 6,9 C 4,8 km/h (1 Bft) 97,62 %
10.12.2016 11:28 7,0 C 73 % 1027,3 hPa 0,0 l/m 3,1 km/h (1 Bft) W 259 2 min 0,000 mm 0,7 UV-I 308 W/m 2,5 C 7,0 C 4,8 km/h (1 Bft) 98,00 %
10.12.2016 11:30 6,9 C 73 % 1027,3 hPa 0,0 l/m 2,2 km/h (1 Bft) SW 225 2 min 0,000 mm 0,7 UV-I 319 W/m 2,4 C 6,9 C 4,8 km/h (1 Bft) 94,00 %
10.12.2016 11:32 7,1 C 73 % 1027,2 hPa 0,0 l/m 2,7 km/h (1 Bft) S-SW 210 2 min 0,000 mm 0,7 UV-I 328 W/m 2,6 C 7,1 C 6,4 km/h (2 Bft) 97,37 %
10.12.2016 11:34 7,1 C 73 % 1027,2 hPa 0,0 l/m 4,0 km/h (1 Bft) S-SW 205 2 min 0,000 mm 0,7 UV-I 328 W/m 2,6 C 7,1 C 8,0 km/h (2 Bft) 97,87 %
10.12.2016 11:36 7,2 C 73 % 1027,2 hPa 0,0 l/m 2,2 km/h (1 Bft) S-SW 205 2 min 0,000 mm 0,7 UV-I 325 W/m 2,7 C 7,2 C 4,8 km/h (1 Bft) 95,74 %
10.12.2016 11:38 7,3 C 73 % 1027,1 hPa 0,0 l/m 2,4 km/h (1 Bft) S-SW 205 2 min 0,000 mm 0,7 UV-I 320 W/m 2,8 C 7,3 C 6,4 km/h (2 Bft) 98,00 %
10.12.2016 11:40 7,3 C 73 % 1027,1 hPa 0,0 l/m 2,5 km/h (1 Bft) S-SW 205 2 min 0,000 mm 0,7 UV-I 325 W/m 2,8 C 7,3 C 6,4 km/h (2 Bft) 97,87 %
10.12.2016 11:42 7,4 C 73 % 1027,1 hPa 0,0 l/m 3,3 km/h (1 Bft) S-SW 205 2 min 0,000 mm 0,7 UV-I 327 W/m 2,9 C 7,4 C 4,8 km/h (1 Bft) 96,00 %
10.12.2016 11:44 7,4 C 73 % 1027,0 hPa 0,0 l/m 2,7 km/h (1 Bft) S-SW 205 2 min 0,000 mm 0,7 UV-I 319 W/m 2,9 C 7,4 C 4,8 km/h (1 Bft) 97,37 %
10.12.2016 11:46 7,4 C 74 % 1027,0 hPa 0,0 l/m 3,8 km/h (1 Bft) W-SW 238 2 min 0,000 mm 0,7 UV-I 302 W/m 3,1 C 7,4 C 6,4 km/h (2 Bft) 93,62 %
10.12.2016 11:48 7,4 C 73 % 1027,0 hPa 0,0 l/m 3,8 km/h (1 Bft) S-SW 213 2 min 0,000 mm 0,7 UV-I 301 W/m 2,9 C 7,4 C 8,0 km/h (2 Bft) 98,11 %
10.12.2016 11:50 7,4 C 73 % 1026,9 hPa 0,0 l/m 3,9 km/h (1 Bft) S-SW 213 2 min 0,000 mm 0,7 UV-I 324 W/m 2,9 C 7,4 C 6,4 km/h (2 Bft) 100,00 %
10.12.2016 11:52 7,4 C 74 % 1026,9 hPa 0,0 l/m 2,9 km/h (1 Bft) W-SW 244 2 min 0,000 mm 0,7 UV-I 345 W/m 3,1 C 7,4 C 4,8 km/h (1 Bft) 100,00 %
10.12.2016 11:54 7,4 C 73 % 1026,9 hPa 0,0 l/m 3,3 km/h (1 Bft) S-SW 192 2 min 0,000 mm 0,7 UV-I 340 W/m 2,9 C 7,4 C 6,4 km/h (2 Bft) 100,00 %
10.12.2016 11:56 7,4 C 73 % 1026,9 hPa 0,0 l/m 4,7 km/h (1 Bft) S-SW 198 2 min 0,000 mm 0,7 UV-I 337 W/m 2,9 C 7,4 C 6,4 km/h (2 Bft) 100,00 %
10.12.2016 11:58 7,4 C 73 % 1026,8 hPa 0,0 l/m 4,7 km/h (1 Bft) SW 227 2 min 0,000 mm 0,7 UV-I 340 W/m 2,9 C 7,4 C 6,4 km/h (2 Bft) 100,00 %
10.12.2016 12:00 7,4 C 73 % 1026,8 hPa 0,0 l/m 5,6 km/h (1 Bft) S-SW 213 2 min 0,153 mm 0,7 UV-I 342 W/m 2,9 C 7,4 C 6,4 km/h (2 Bft) 100,00 %
10.12.2016 12:02 7,4 C 72 % 1026,8 hPa 0,0 l/m 4,3 km/h (1 Bft) W-SW 243 2 min 0,000 mm 0,7 UV-I 338 W/m 2,7 C 7,4 C 6,4 km/h (2 Bft) 97,22 %
10.12.2016 12:04 7,3 C 72 % 1026,7 hPa 0,0 l/m 3,8 km/h (1 Bft) W-SW 243 2 min 0,000 mm 0,7 UV-I 336 W/m 2,6 C 7,3 C 4,8 km/h (1 Bft) 100,00 %
10.12.2016 12:06 7,4 C 72 % 1026,7 hPa 0,0 l/m 3,1 km/h (1 Bft) W-SW 243 2 min 0,000 mm 0,7 UV-I 335 W/m 2,7 C 7,4 C 4,8 km/h (1 Bft) 100,00 %
10.12.2016 12:08 7,4 C 72 % 1026,6 hPa 0,0 l/m 4,1 km/h (1 Bft) SW 214 2 min 0,000 mm 0,7 UV-I 331 W/m 2,7 C 7,4 C 8,0 km/h (2 Bft) 100,00 %
10.12.2016 12:10 7,5 C 71 % 1026,6 hPa 0,0 l/m 5,3 km/h (1 Bft) SW 232 2 min 0,000 mm 0,7 UV-I 319 W/m 2,6 C 7,5 C 8,0 km/h (2 Bft) 100,00 %
10.12.2016 12:12 7,5 C 71 % 1026,6 hPa 0,0 l/m 4,4 km/h (1 Bft) SW 232 2 min 0,000 mm 0,7 UV-I 301 W/m 2,6 C 7,5 C 6,4 km/h (2 Bft) 98,21 %
10.12.2016 12:14 7,4 C 71 % 1026,5 hPa 0,0 l/m 2,9 km/h (1 Bft) W-SW 238 2 min 0,000 mm 0,7 UV-I 311 W/m 2,5 C 7,4 C 4,8 km/h (1 Bft) 100,00 %
10.12.2016 12:16 7,5 C 72 % 1026,5 hPa 0,0 l/m 3,5 km/h (1 Bft) S-SW 206 2 min 0,000 mm 0,7 UV-I 316 W/m 2,8 C 7,5 C 4,8 km/h (1 Bft) 100,00 %
10.12.2016 12:18 7,7 C 70 % 1026,4 hPa 0,0 l/m 3,8 km/h (1 Bft) S-SW 202 2 min 0,000 mm 0,7 UV-I 305 W/m 2,6 C 7,7 C 6,4 km/h (2 Bft) 95,74 %
10.12.2016 12:20 7,7 C 70 % 1026,4 hPa 0,0 l/m 3,1 km/h (1 Bft) S-SW 194 2 min 0,000 mm 0,7 UV-I 297 W/m 2,6 C 7,7 C 6,4 km/h (2 Bft) 100,00 %
10.12.2016 12:22 7,7 C 71 % 1026,3 hPa 0,0 l/m 3,9 km/h (1 Bft) SW 223 2 min 0,000 mm 0,7 UV-I 294 W/m 2,8 C 7,7 C 4,8 km/h (1 Bft) 100,00 %
10.12.2016 12:24 7,7 C 71 % 1026,3 hPa 0,0 l/m 2,0 km/h (1 Bft) SW 222 2 min 0,000 mm 0,7 UV-I 296 W/m 2,8 C 7,7 C 4,8 km/h (1 Bft) 100,00 %
10.12.2016 12:26 7,7 C 71 % 1026,2 hPa 0,0 l/m 1,2 km/h (1 Bft) SW 218 2 min 0,000 mm 0,7 UV-I 304 W/m 2,8 C 7,7 C 3,2 km/h (1 Bft) 100,00 %
10.12.2016 12:28 7,7 C 71 % 1026,2 hPa 0,0 l/m 3,4 km/h (1 Bft) S-SW 213 2 min 0,000 mm 0,7 UV-I 294 W/m 2,8 C 7,7 C 6,4 km/h (2 Bft) 100,00 %
10.12.2016 12:30 7,7 C 70 % 1026,2 hPa 0,0 l/m 5,3 km/h (1 Bft) S-SW 210 2 min 0,000 mm 0,7 UV-I 292 W/m 2,6 C 7,7 C 8,0 km/h (2 Bft) 98,11 %
10.12.2016 12:32 7,7 C 70 % 1026,1 hPa 0,0 l/m 4,2 km/h (1 Bft) S-SW 207 2 min 0,000 mm 0,7 UV-I 266 W/m 2,6 C 7,7 C 9,7 km/h (2 Bft) 100,00 %
10.12.2016 12:34 7,7 C 71 % 1026,1 hPa 0,0 l/m 3,5 km/h (1 Bft) S-SW 212 2 min 0,000 mm 0,7 UV-I 288 W/m 2,8 C 7,7 C 6,4 km/h (2 Bft) 100,00 %
10.12.2016 12:36 7,8 C 71 % 1026,0 hPa 0,0 l/m 2,6 km/h (1 Bft) S-SW 212 2 min 0,000 mm 0,7 UV-I 308 W/m 2,9 C 7,8 C 4,8 km/h (1 Bft) 100,00 %
10.12.2016 12:38 7,9 C 69 % 1026,0 hPa 0,0 l/m 1,0 km/h (0 Bft) S-SW 212 2 min 0,000 mm 0,7 UV-I 312 W/m 2,6 C 7,9 C 3,2 km/h (1 Bft) 100,00 %
10.12.2016 12:40 8,1 C 70 % 1026,0 hPa 0,0 l/m 2,6 km/h (1 Bft) SW 217 2 min 0,000 mm 0,7 UV-I 315 W/m 3,0 C 8,1 C 4,8 km/h (1 Bft) 100,00 %
10.12.2016 12:42 8,1 C 70 % 1025,9 hPa 0,0 l/m 1,0 km/h (0 Bft) SW 217 2 min 0,000 mm 0,7 UV-I 314 W/m 3,0 C 8,1 C 3,2 km/h (1 Bft) 100,00 %
10.12.2016 12:44 8,1 C 69 % 1025,9 hPa 0,0 l/m 2,0 km/h (1 Bft) SW 217 2 min 0,000 mm 0,7 UV-I 314 W/m 2,8 C 8,1 C 3,2 km/h (1 Bft) 100,00 %
10.12.2016 12:46 8,1 C 69 % 1025,9 hPa 0,0 l/m 2,3 km/h (1 Bft) SW 217 2 min 0,000 mm 0,7 UV-I 318 W/m 2,8 C 8,1 C 6,4 km/h (2 Bft) 98,00 %
10.12.2016 12:48 8,1 C 67 % 1025,9 hPa 0,0 l/m 3,0 km/h (1 Bft) SW 217 2 min 0,000 mm 0,7 UV-I 316 W/m 2,3 C 8,1 C 4,8 km/h (1 Bft) 97,87 %
10.12.2016 12:50 8,2 C 67 % 1025,9 hPa 0,0 l/m 4,8 km/h (1 Bft) SW 217 2 min 0,000 mm 0,7 UV-I 311 W/m 2,4 C 8,2 C 6,4 km/h (2 Bft) 98,00 %
10.12.2016 12:52 8,3 C 66 % 1025,8 hPa 0,0 l/m 4,1 km/h (1 Bft) SW 217 2 min 0,000 mm 0,7 UV-I 298 W/m 2,3 C 8,3 C 8,0 km/h (2 Bft) 96,15 %
10.12.2016 12:54 8,4 C 66 % 1025,8 hPa 0,0 l/m 1,6 km/h (1 Bft) SW 217 2 min 0,000 mm 0,7 UV-I 303 W/m 2,4 C 8,4 C 3,2 km/h (1 Bft) 98,53 %
10.12.2016 12:56 8,4 C 67 % 1025,8 hPa 0,0 l/m 0,9 km/h (0 Bft) SW 217 2 min 0,000 mm 0,7 UV-I 315 W/m 2,6 C 8,4 C 4,8 km/h (1 Bft) 97,37 %
10.12.2016 12:58 8,5 C 65 % 1025,8 hPa 0,0 l/m 1,6 km/h (1 Bft) SW 217 2 min 0,000 mm 0,7 UV-I 313 W/m 2,3 C 8,5 C 4,8 km/h (1 Bft) 97,87 %
10.12.2016 13:00 8,6 C 65 % 1025,8 hPa 0,0 l/m 2,4 km/h (1 Bft) SW 217 2 min 0,152 mm 0,7 UV-I 307 W/m 2,4 C 8,6 C 3,2 km/h (1 Bft) 94,34 %
10.12.2016 13:02 8,6 C 62 % 1025,8 hPa 0,0 l/m 4,3 km/h (1 Bft) W-SW 254 2 min 0,000 mm 0,6 UV-I 301 W/m 1,7 C 8,6 C 6,4 km/h (2 Bft) 100,00 %
10.12.2016 13:04 8,6 C 63 % 1025,8 hPa 0,0 l/m 3,2 km/h (1 Bft) W 264 2 min 0,000 mm 0,6 UV-I 298 W/m 2,0 C 8,6 C 6,4 km/h (2 Bft) 95,74 %
10.12.2016 13:06 8,6 C 65 % 1025,8 hPa 0,0 l/m 1,8 km/h (1 Bft) W 265 2 min 0,000 mm 0,6 UV-I 295 W/m 2,4 C 8,6 C 4,8 km/h (1 Bft) 98,00 %
10.12.2016 13:08 8,6 C 65 % 1025,8 hPa 0,0 l/m 4,3 km/h (1 Bft) W-SW 240 2 min 0,000 mm 0,6 UV-I 292 W/m 2,4 C 8,6 C 6,4 km/h (2 Bft) 97,56 %
10.12.2016 13:10 8,6 C 65 % 1025,9 hPa 0,0 l/m 2,3 km/h (1 Bft) SW 216 2 min 0,000 mm 0,6 UV-I 291 W/m 2,4 C 8,6 C 4,8 km/h (1 Bft) 97,87 %
10.12.2016 13:12 8,6 C 63 % 1025,9 hPa 0,0 l/m 3,3 km/h (1 Bft) SW 216 2 min 0,000 mm 0,6 UV-I 287 W/m 2,0 C 8,6 C 4,8 km/h (1 Bft) 100,00 %
10.12.2016 13:14 8,7 C 62 % 1025,8 hPa 0,0 l/m 2,7 km/h (1 Bft) W 271 2 min 0,000 mm 0,6 UV-I 288 W/m 1,8 C 8,7 C 4,8 km/h (1 Bft) 100,00 %
10.12.2016 13:16 8,7 C 62 % 1025,8 hPa 0,0 l/m 4,3 km/h (1 Bft) W 281 2 min 0,000 mm 0,6 UV-I 289 W/m 1,8 C 8,7 C 9,7 km/h (2 Bft) 100,00 %
10.12.2016 13:18 8,7 C 60 % 1025,8 hPa 0,0 l/m 4,2 km/h (1 Bft) W 259 2 min 0,000 mm 0,6 UV-I 288 W/m 1,4 C 8,7 C 6,4 km/h (2 Bft) 100,00 %
10.12.2016 13:20 8,6 C 61 % 1025,9 hPa 0,0 l/m 4,9 km/h (1 Bft) W-SW 245 2 min 0,000 mm 0,6 UV-I 285 W/m 1,5 C 8,6 C 8,0 km/h (2 Bft) 100,00 %
10.12.2016 13:22 8,6 C 62 % 1025,8 hPa 0,0 l/m 5,0 km/h (1 Bft) W-SW 243 2 min 0,000 mm 0,6 UV-I 282 W/m 1,7 C 8,6 C 8,0 km/h (2 Bft) 100,00 %
10.12.2016 13:24 8,5 C 63 % 1025,7 hPa 0,0 l/m 5,0 km/h (1 Bft) W-SW 240 2 min 0,000 mm 0,6 UV-I 278 W/m 1,9 C 8,5 C 6,4 km/h (2 Bft) 100,00 %
10.12.2016 13:26 8,6 C 63 % 1025,7 hPa 0,0 l/m 2,7 km/h (1 Bft) W-SW 241 2 min 0,000 mm 0,5 UV-I 268 W/m 2,0 C 8,6 C 4,8 km/h (1 Bft) 100,00 %
10.12.2016 13:28 8,7 C 62 % 1025,7 hPa 0,0 l/m 2,9 km/h (1 Bft) W-NW 302 2 min 0,000 mm 0,5 UV-I 265 W/m 1,8 C 8,7 C 4,8 km/h (1 Bft) 100,00 %
10.12.2016 13:30 8,7 C 61 % 1025,7 hPa 0,0 l/m 2,1 km/h (1 Bft) W-NW 302 2 min 0,000 mm 0,5 UV-I 261 W/m 1,6 C 8,7 C 3,2 km/h (1 Bft) 100,00 %
10.12.2016 13:32 8,7 C 59 % 1025,7 hPa 0,0 l/m 2,5 km/h (1 Bft) W-NW 300 2 min 0,000 mm 0,5 UV-I 262 W/m 1,1 C 8,7 C 4,8 km/h (1 Bft) 100,00 %
10.12.2016 13:34 8,7 C 59 % 1025,7 hPa 0,0 l/m 2,7 km/h (1 Bft) W-NW 298 2 min 0,000 mm 0,5 UV-I 258 W/m 1,1 C 8,7 C 4,8 km/h (1 Bft) 97,37 %
10.12.2016 13:36 8,7 C 60 % 1025,7 hPa 0,0 l/m 1,5 km/h (1 Bft) W-NW 298 2 min 0,000 mm 0,5 UV-I 258 W/m 1,4 C 8,7 C 3,2 km/h (1 Bft) 100,00 %
10.12.2016 13:38 8,8 C 62 % 1025,6 hPa 0,0 l/m 0,6 km/h (0 Bft) W-NW 298 2 min 0,000 mm 0,5 UV-I 254 W/m 1,9 C 8,8 C 3,2 km/h (1 Bft) 100,00 %
10.12.2016 13:40 8,8 C 60 % 1025,6 hPa 0,0 l/m 3,3 km/h (1 Bft) NW 319 2 min 0,000 mm 0,5 UV-I 250 W/m 1,5 C 8,8 C 4,8 km/h (1 Bft) 98,11 %
10.12.2016 13:42 8,8 C 61 % 1025,6 hPa 0,0 l/m 0,9 km/h (0 Bft) NW 315 2 min 0,000 mm 0,5 UV-I 245 W/m 1,7 C 8,8 C 4,8 km/h (1 Bft) 98,00 %
10.12.2016 13:44 8,9 C 63 % 1025,6 hPa 0,0 l/m 2,9 km/h (1 Bft) NW 317 2 min 0,000 mm 0,5 UV-I 240 W/m 2,2 C 8,9 C 4,8 km/h (1 Bft) 100,00 %
10.12.2016 13:46 8,8 C 62 % 1025,6 hPa 0,0 l/m 2,5 km/h (1 Bft) NW 317 2 min 0,000 mm 0,5 UV-I 236 W/m 1,9 C 8,8 C 4,8 km/h (1 Bft) 100,00 %
10.12.2016 13:48 8,7 C 63 % 1025,6 hPa 0,0 l/m 2,2 km/h (1 Bft) NW 319 2 min 0,000 mm 0,5 UV-I 233 W/m 2,1 C 8,7 C 6,4 km/h (2 Bft) 100,00 %
10.12.2016 13:50 8,7 C 62 % 1025,5 hPa 0,0 l/m 0,1 km/h (0 Bft) NW 319 2 min 0,000 mm 0,0 UV-I 226 W/m 1,8 C 8,7 C 1,6 km/h (1 Bft) 100,00 %
10.12.2016 13:52 8,7 C 62 % 1025,5 hPa 0,0 l/m 0,6 km/h (0 Bft) NW 319 2 min 0,000 mm 0,0 UV-I 222 W/m 1,8 C 8,7 C 1,6 km/h (1 Bft) 100,00 %
10.12.2016 13:54 8,7 C 63 % 1025,5 hPa 0,0 l/m 0,3 km/h (0 Bft) NW 319 2 min 0,000 mm 0,0 UV-I 224 W/m 2,1 C 8,7 C 1,6 km/h (1 Bft) 100,00 %
10.12.2016 13:56 8,7 C 62 % 1025,5 hPa 0,0 l/m 1,8 km/h (1 Bft) NW 317 2 min 0,000 mm 0,0 UV-I 222 W/m 1,8 C 8,7 C 3,2 km/h (1 Bft) 100,00 %
10.12.2016 13:58 8,6 C 61 % 1025,4 hPa 0,0 l/m 1,7 km/h (1 Bft) NW 317 2 min 0,000 mm 0,0 UV-I 219 W/m 1,5 C 8,6 C 3,2 km/h (1 Bft) 100,00 %
10.12.2016 14:00 8,6 C 61 % 1025,5 hPa 0,0 l/m 1,7 km/h (1 Bft) NW 319 2 min 0,000 mm 0,0 UV-I 215 W/m 1,5 C 8,6 C 3,2 km/h (1 Bft) 100,00 %
10.12.2016 14:02 8,6 C 60 % 1025,4 hPa 0,0 l/m 0,4 km/h (0 Bft) NW 319 2 min 0,127 mm 0,0 UV-I 211 W/m 1,3 C 8,6 C 1,6 km/h (1 Bft) 100,00 %
10.12.2016 14:04 8,6 C 61 % 1025,4 hPa 0,0 l/m 0,5 km/h (0 Bft) NW 319 2 min 0,000 mm 0,0 UV-I 207 W/m 1,5 C 8,6 C 3,2 km/h (1 Bft) 98,00 %
10.12.2016 14:06 8,6 C 61 % 1025,5 hPa 0,0 l/m 2,1 km/h (1 Bft) NW 307 2 min 0,000 mm 0,0 UV-I 205 W/m 1,5 C 8,6 C 4,8 km/h (1 Bft) 100,00 %
10.12.2016 14:08 8,6 C 61 % 1025,4 hPa 0,0 l/m 2,4 km/h (1 Bft) NW 306 2 min 0,000 mm 0,0 UV-I 204 W/m 1,5 C 8,6 C 4,8 km/h (1 Bft) 97,50 %
10.12.2016 14:10 8,6 C 61 % 1025,4 hPa 0,0 l/m 1,5 km/h (1 Bft) NW 306 2 min 0,000 mm 0,0 UV-I 200 W/m 1,5 C 8,6 C 3,2 km/h (1 Bft) 98,00 %
10.12.2016 14:12 8,7 C 61 % 1025,4 hPa 0,0 l/m 1,1 km/h (1 Bft) NW 306 2 min 0,000 mm 0,0 UV-I 196 W/m 1,6 C 8,7 C 1,6 km/h (1 Bft) 96,00 %
10.12.2016 14:14 8,7 C 64 % 1025,4 hPa 0,0 l/m 1,5 km/h (1 Bft) NW 306 2 min 0,000 mm 0,0 UV-I 192 W/m 2,3 C 8,7 C 3,2 km/h (1 Bft) 97,37 %
10.12.2016 14:16 8,7 C 62 % 1025,3 hPa 0,0 l/m 0,6 km/h (0 Bft) NW 306 2 min 0,000 mm 0,0 UV-I 189 W/m 1,8 C 8,7 C 1,6 km/h (1 Bft) 98,00 %
10.12.2016 14:18 8,8 C 61 % 1025,3 hPa 0,0 l/m 0,4 km/h (0 Bft) NW 306 2 min 0,000 mm 0,0 UV-I 186 W/m 1,7 C 8,8 C 3,2 km/h (1 Bft) 97,87 %
10.12.2016 14:20 8,8 C 60 % 1025,3 hPa 0,0 l/m 0,2 km/h (0 Bft) NW 306 2 min 0,000 mm 0,0 UV-I 182 W/m 1,5 C 8,8 C 1,6 km/h (1 Bft) 96,23 %
10.12.2016 14:22 8,7 C 59 % 1025,3 hPa 0,0 l/m 0,9 km/h (0 Bft) NW 306 2 min 0,000 mm 0,0 UV-I 178 W/m 1,1 C 8,7 C 1,6 km/h (1 Bft) 97,37 %
10.12.2016 14:24 8,8 C 58 % 1025,2 hPa 0,0 l/m 1,4 km/h (1 Bft) NW 306 2 min 0,000 mm 0,0 UV-I 172 W/m 1,0 C 8,8 C 3,2 km/h (1 Bft) 98,11 %
10.12.2016 14:26 8,7 C 57 % 1025,3 hPa 0,0 l/m 0,4 km/h (0 Bft) NW 306 2 min 0,000 mm 0,0 UV-I 165 W/m 0,7 C 8,7 C 1,6 km/h (1 Bft) 95,12 %
10.12.2016 14:28 8,7 C 57 % 1025,2 hPa 0,0 l/m 1,0 km/h (0 Bft) NW 306 2 min 0,000 mm 0,0 UV-I 157 W/m 0,7 C 8,7 C 3,2 km/h (1 Bft) 97,87 %
10.12.2016 14:30 8,7 C 57 % 1025,2 hPa 0,0 l/m 0,4 km/h (0 Bft) NW 306 2 min 0,000 mm 0,0 UV-I 160 W/m 0,7 C 8,7 C 1,6 km/h (1 Bft) 95,74 %
10.12.2016 14:32 8,7 C 58 % 1025,3 hPa 0,0 l/m 1,0 km/h (0 Bft) NW 306 2 min 0,000 mm 0,0 UV-I 163 W/m 0,9 C 8,7 C 1,6 km/h (1 Bft) 98,00 %
10.12.2016 14:34 8,6 C 58 % 1025,3 hPa 0,0 l/m 0,9 km/h (0 Bft) NW 306 2 min 0,000 mm 0,0 UV-I 160 W/m 0,8 C 8,6 C 1,6 km/h (1 Bft) 97,62 %
10.12.2016 14:36 8,6 C 59 % 1025,3 hPa 0,0 l/m 0,1 km/h (0 Bft) NW 306 2 min 0,000 mm 0,0 UV-I 156 W/m 1,0 C 8,6 C 1,6 km/h (1 Bft) 97,87 %
10.12.2016 14:38 8,5 C 61 % 1025,4 hPa 0,0 l/m 0,1 km/h (0 Bft) NW 306 2 min 0,000 mm 0,0 UV-I 153 W/m 1,4 C 8,5 C 1,6 km/h (1 Bft) 97,87 %
10.12.2016 14:40 8,5 C 59 % 1025,3 hPa 0,0 l/m 0,1 km/h (0 Bft) NW 306 2 min 0,000 mm 0,0 UV-I 149 W/m 1,0 C 8,5 C 1,6 km/h (1 Bft) 95,74 %
10.12.2016 14:42 8,5 C 57 % 1025,3 hPa 0,0 l/m 0,1 km/h (0 Bft) NW 306 2 min 0,000 mm 0,0 UV-I 146 W/m 0,5 C 8,5 C 1,6 km/h (1 Bft) 90,00 %
10.12.2016 14:44 8,6 C 58 % 1025,3 hPa 0,0 l/m 0,0 km/h (0 Bft) NW 306 2 min 0,000 mm 0,0 UV-I 142 W/m 0,8 C 8,6 C 0,0 km/h (0 Bft) 96,00 %
10.12.2016 14:46 8,6 C 57 % 1025,3 hPa 0,0 l/m 0,3 km/h (0 Bft) NW 306 2 min 0,000 mm 0,0 UV-I 139 W/m 0,6 C 8,6 C 1,6 km/h (1 Bft) 100,00 %
10.12.2016 14:48 8,5 C 58 % 1025,4 hPa 0,0 l/m 0,3 km/h (0 Bft) NW 306 2 min 0,000 mm 0,0 UV-I 136 W/m 0,7 C 8,5 C 1,6 km/h (1 Bft) 100,00 %
10.12.2016 14:50 8,5 C 59 % 1025,4 hPa 0,0 l/m 1,0 km/h (0 Bft) NW 306 2 min 0,000 mm 0,0 UV-I 132 W/m 1,0 C 8,5 C 1,6 km/h (1 Bft) 100,00 %
10.12.2016 14:52 8,4 C 59 % 1025,4 hPa 0,0 l/m 1,1 km/h (1 Bft) NW 306 2 min 0,000 mm 0,0 UV-I 128 W/m 0,9 C 8,4 C 3,2 km/h (1 Bft) 100,00 %
10.12.2016 14:54 8,4 C 59 % 1025,4 hPa 0,0 l/m 0,1 km/h (0 Bft) NW 306 2 min 0,000 mm 0,0 UV-I 125 W/m 0,9 C 8,4 C 1,6 km/h (1 Bft) 96,23 %
10.12.2016 14:56 8,3 C 60 % 1025,3 hPa 0,0 l/m 0,5 km/h (0 Bft) NW 306 2 min 0,000 mm 0,0 UV-I 121 W/m 1,0 C 8,3 C 1,6 km/h (1 Bft) 100,00 %
10.12.2016 14:58 8,4 C 60 % 1025,4 hPa 0,0 l/m 0,2 km/h (0 Bft) NW 306 2 min 0,000 mm 0,0 UV-I 116 W/m 1,1 C 8,4 C 1,6 km/h (1 Bft) 98,00 %
10.12.2016 15:00 8,3 C 60 % 1025,4 hPa 0,0 l/m 0,1 km/h (0 Bft) NW 306 2 min 0,076 mm 0,0 UV-I 113 W/m 1,0 C 8,3 C 1,6 km/h (1 Bft) 100,00 %
10.12.2016 15:02 8,3 C 60 % 1025,3 hPa 0,0 l/m 0,1 km/h (0 Bft) NW 306 2 min 0,000 mm 0,0 UV-I 109 W/m 1,0 C 8,3 C 1,6 km/h (1 Bft) 100,00 %
10.12.2016 15:04 8,3 C 60 % 1025,3 hPa 0,0 l/m 0,0 km/h (0 Bft) NW 306 2 min 0,000 mm 0,0 UV-I 102 W/m 1,0 C 8,3 C 1,6 km/h (1 Bft) 100,00 %
10.12.2016 15:06 8,3 C 60 % 1025,3 hPa 0,0 l/m 0,1 km/h (0 Bft) NW 306 2 min 0,000 mm 0,0 UV-I 102 W/m 1,0 C 8,3 C 1,6 km/h (1 Bft) 98,00 %
10.12.2016 15:08 8,2 C 63 % 1025,2 hPa 0,0 l/m 0,5 km/h (0 Bft) NW 306 2 min 0,000 mm 0,0 UV-I 101 W/m 1,6 C 8,2 C 1,6 km/h (1 Bft) 98,00 %
10.12.2016 15:10 8,1 C 67 % 1025,2 hPa 0,0 l/m 0,7 km/h (0 Bft) NW 306 2 min 0,000 mm 0,0 UV-I 98 W/m 2,3 C 8,1 C 1,6 km/h (1 Bft) 100,00 %
10.12.2016 15:12 7,9 C 67 % 1025,2 hPa 0,0 l/m 1,6 km/h (1 Bft) NW 306 2 min 0,000 mm 0,0 UV-I 95 W/m 2,2 C 7,9 C 3,2 km/h (1 Bft) 97,87 %
10.12.2016 15:14 7,8 C 69 % 1025,2 hPa 0,0 l/m 2,0 km/h (1 Bft) NW 306 2 min 0,000 mm 0,0 UV-I 91 W/m 2,5 C 7,8 C 3,2 km/h (1 Bft) 100,00 %
10.12.2016 15:16 7,6 C 68 % 1025,2 hPa 0,0 l/m 0,9 km/h (0 Bft) NW 306 2 min 0,000 mm 0,0 UV-I 87 W/m 2,1 C 7,6 C 1,6 km/h (1 Bft) 100,00 %
10.12.2016 15:18 7,5 C 68 % 1025,2 hPa 0,0 l/m 0,0 km/h (0 Bft) NW 306 2 min 0,000 mm 0,0 UV-I 83 W/m 2,0 C 7,5 C 1,6 km/h (1 Bft) 100,00 %
10.12.2016 15:20 7,5 C 67 % 1025,2 hPa 0,0 l/m 0,1 km/h (0 Bft) NW 306 2 min 0,000 mm 0,0 UV-I 79 W/m 1,8 C 7,5 C 1,6 km/h (1 Bft) 100,00 %
10.12.2016 15:22 7,5 C 68 % 1025,2 hPa 0,0 l/m 0,1 km/h (0 Bft) NW 306 2 min 0,000 mm 0,0 UV-I 75 W/m 2,0 C 7,5 C 1,6 km/h (1 Bft) 100,00 %
10.12.2016 15:24 7,5 C 67 % 1025,2 hPa 0,0 l/m 0,1 km/h (0 Bft) NW 306 2 min 0,000 mm 0,0 UV-I 70 W/m 1,8 C 7,5 C 1,6 km/h (1 Bft) 100,00 %
10.12.2016 15:26 7,4 C 68 % 1025,2 hPa 0,0 l/m 0,0 km/h (0 Bft) NW 306 2 min 0,000 mm 0,0 UV-I 67 W/m 1,9 C 7,4 C 0,0 km/h (0 Bft) 100,00 %
10.12.2016 15:28 7,3 C 69 % 1025,2 hPa 0,0 l/m 0,0 km/h (0 Bft) NW 306 2 min 0,000 mm 0,0 UV-I 61 W/m 2,0 C 7,3 C 0,0 km/h (0 Bft) 100,00 %
10.12.2016 15:30 7,3 C 69 % 1025,2 hPa 0,0 l/m 0,3 km/h (0 Bft) NW 306 2 min 0,000 mm 0,0 UV-I 58 W/m 2,0 C 7,3 C 1,6 km/h (1 Bft) 100,00 %
10.12.2016 15:32 7,2 C 70 % 1025,2 hPa 0,0 l/m 0,1 km/h (0 Bft) NW 306 2 min 0,000 mm 0,0 UV-I 56 W/m 2,1 C 7,2 C 1,6 km/h (1 Bft) 98,46 %
10.12.2016 15:34 7,0 C 70 % 1025,3 hPa 0,0 l/m 0,1 km/h (0 Bft) NW 306 2 min 0,000 mm 0,0 UV-I 53 W/m 1,9 C 7,0 C 1,6 km/h (1 Bft) 100,00 %
10.12.2016 15:36 6,9 C 70 % 1025,2 hPa 0,0 l/m 0,0 km/h (0 Bft) NW 306 2 min 0,000 mm 0,0 UV-I 49 W/m 1,8 C 6,9 C 0,0 km/h (0 Bft) 100,00 %
10.12.2016 15:38 6,8 C 70 % 1025,2 hPa 0,0 l/m 0,0 km/h (0 Bft) NW 306 2 min 0,000 mm 0,0 UV-I 47 W/m 1,7 C 6,8 C 0,0 km/h (0 Bft) 100,00 %
10.12.2016 15:40 6,8 C 70 % 1025,3 hPa 0,0 l/m 0,1 km/h (0 Bft) NW 306 2 min 0,000 mm 0,0 UV-I 43 W/m 1,7 C 6,8 C 1,6 km/h (1 Bft) 100,00 %
10.12.2016 15:42 6,8 C 70 % 1025,3 hPa 0,0 l/m 0,2 km/h (0 Bft) NW 306 2 min 0,000 mm 0,0 UV-I 39 W/m 1,7 C 6,8 C 1,6 km/h (1 Bft) 100,00 %
10.12.2016 15:44 6,9 C 71 % 1025,3 hPa 0,0 l/m 0,0 km/h (0 Bft) NW 306 2 min 0,000 mm 0,0 UV-I 36 W/m 2,0 C 6,9 C 0,0 km/h (0 Bft) 100,00 %
10.12.2016 15:46 6,9 C 71 % 1025,3 hPa 0,0 l/m 0,0 km/h (0 Bft) NW 306 2 min 0,000 mm 0,0 UV-I 34 W/m 2,0 C 6,9 C 0,0 km/h (0 Bft) 100,00 %
10.12.2016 15:48 6,9 C 71 % 1025,3 hPa 0,0 l/m 0,0 km/h (0 Bft) NW 306 2 min 0,000 mm 0,0 UV-I 31 W/m 2,0 C 6,9 C 0,0 km/h (0 Bft) 100,00 %
10.12.2016 15:50 6,8 C 72 % 1025,3 hPa 0,0 l/m 0,0 km/h (0 Bft) NW 306 2 min 0,000 mm 0,0 UV-I 28 W/m 2,1 C 6,8 C 0,0 km/h (0 Bft) 97,87 %
10.12.2016 15:52 6,6 C 73 % 1025,3 hPa 0,0 l/m 0,1 km/h (0 Bft) NW 306 2 min 0,000 mm 0,0 UV-I 26 W/m 2,1 C 6,6 C 1,6 km/h (1 Bft) 100,00 %
10.12.2016 15:54 6,3 C 74 % 1025,3 hPa 0,0 l/m 1,4 km/h (1 Bft) NW 306 2 min 0,000 mm 0,0 UV-I 24 W/m 2,0 C 6,3 C 1,6 km/h (1 Bft) 100,00 %
10.12.2016 15:56 6,1 C 76 % 1025,3 hPa 0,0 l/m 0,8 km/h (0 Bft) NW 306 2 min 0,000 mm 0,0 UV-I 21 W/m 2,2 C 6,1 C 1,6 km/h (1 Bft) 100,00 %
10.12.2016 15:58 5,9 C 77 % 1025,3 hPa 0,0 l/m 1,3 km/h (1 Bft) NW 306 0 min 0,000 mm 0,0 UV-I 19 W/m 2,2 C 5,9 C 1,6 km/h (1 Bft) 100,00 %
10.12.2016 16:00 5,8 C 77 % 1025,3 hPa 0,0 l/m 0,5 km/h (0 Bft) NW 306 0 min 0,026 mm 0,0 UV-I 18 W/m 2,1 C 5,8 C 1,6 km/h (1 Bft) 100,00 %
10.12.2016 16:02 5,8 C 77 % 1025,3 hPa 0,0 l/m 0,6 km/h (0 Bft) NW 306 0 min 0,000 mm 0,0 UV-I 14 W/m 2,1 C 5,8 C 3,2 km/h (1 Bft) 98,00 %
10.12.2016 16:04 5,7 C 78 % 1025,2 hPa 0,0 l/m 2,4 km/h (1 Bft) NW 306 0 min 0,000 mm 0,0 UV-I 12 W/m 2,2 C 5,7 C 3,2 km/h (1 Bft) 98,15 %
10.12.2016 16:06 5,6 C 78 % 1025,3 hPa 0,0 l/m 3,1 km/h (1 Bft) NW 306 0 min 0,000 mm 0,0 UV-I 11 W/m 2,1 C 5,6 C 3,2 km/h (1 Bft) 100,00 %
10.12.2016 16:08 5,4 C 78 % 1025,3 hPa 0,0 l/m 2,1 km/h (1 Bft) NW 306 0 min 0,000 mm 0,0 UV-I 10 W/m 1,9 C 5,4 C 3,2 km/h (1 Bft) 97,87 %
10.12.2016 16:10 5,2 C 78 % 1025,2 hPa 0,0 l/m 1,9 km/h (1 Bft) NW 306 0 min 0,000 mm 0,0 UV-I 9 W/m 1,7 C 5,2 C 3,2 km/h (1 Bft) 100,00 %
10.12.2016 16:12 5,0 C 79 % 1025,3 hPa 0,0 l/m 1,8 km/h (1 Bft) NW 306 0 min 0,000 mm 0,0 UV-I 9 W/m 1,7 C 5,0 C 3,2 km/h (1 Bft) 100,00 %
10.12.2016 16:14 4,8 C 80 % 1025,3 hPa 0,0 l/m 1,8 km/h (1 Bft) NW 306 0 min 0,000 mm 0,0 UV-I 7 W/m 1,6 C 4,8 C 3,2 km/h (1 Bft) 100,00 %
10.12.2016 16:16 4,8 C 80 % 1025,3 hPa 0,0 l/m 2,2 km/h (1 Bft) NW 306 0 min 0,000 mm 0,0 UV-I 7 W/m 1,6 C 4,8 C 3,2 km/h (1 Bft) 95,12 %
10.12.2016 16:18 4,7 C 80 % 1025,3 hPa 0,0 l/m 1,5 km/h (1 Bft) NW 306 0 min 0,000 mm 0,0 UV-I 7 W/m 1,6 C 4,7 C 3,2 km/h (1 Bft) 98,11 %
10.12.2016 16:20 4,5 C 81 % 1025,2 hPa 0,0 l/m 0,9 km/h (0 Bft) W-NW 302 0 min 0,000 mm 0,0 UV-I 7 W/m 1,5 C 4,5 C 1,6 km/h (1 Bft) 100,00 %
10.12.2016 16:22 4,2 C 81 % 1025,2 hPa 0,0 l/m 0,8 km/h (0 Bft) W-NW 302 0 min 0,000 mm 0,0 UV-I 5 W/m 1,2 C 4,2 C 1,6 km/h (1 Bft) 98,08 %
10.12.2016 16:24 3,9 C 82 % 1025,2 hPa 0,0 l/m 0,7 km/h (0 Bft) W-NW 301 0 min 0,000 mm 0,0 UV-I 5 W/m 1,1 C 3,9 C 1,6 km/h (1 Bft) 100,00 %
10.12.2016 16:26 3,8 C 83 % 1025,2 hPa 0,0 l/m 1,3 km/h (1 Bft) W-NW 300 0 min 0,000 mm 0,0 UV-I 5 W/m 1,2 C 3,8 C 1,6 km/h (1 Bft) 100,00 %
10.12.2016 16:28 3,9 C 83 % 1025,2 hPa 0,0 l/m 1,2 km/h (1 Bft) W-NW 291 0 min 0,000 mm 0,0 UV-I 5 W/m 1,3 C 3,9 C 3,2 km/h (1 Bft) 100,00 %
10.12.2016 16:30 4,1 C 83 % 1025,2 hPa 0,0 l/m 1,4 km/h (1 Bft) W 277 0 min 0,000 mm 0,0 UV-I 1 W/m 1,5 C 4,1 C 3,2 km/h (1 Bft) 100,00 %
10.12.2016 16:32 4,1 C 83 % 1025,1 hPa 0,0 l/m 1,5 km/h (1 Bft) S-SW 213 0 min 0,000 mm 0,0 UV-I 0 W/m 1,5 C 4,1 C 3,2 km/h (1 Bft) 100,00 %
10.12.2016 16:34 4,1 C 83 % 1025,1 hPa 0,0 l/m 1,4 km/h (1 Bft) S-SW 213 0 min 0,000 mm 0,0 UV-I 0 W/m 1,5 C 4,1 C 1,6 km/h (1 Bft) 100,00 %
10.12.2016 16:36 3,9 C 83 % 1025,1 hPa 0,0 l/m 1,6 km/h (1 Bft) S-SW 196 0 min 0,000 mm 0,0 UV-I 0 W/m 1,3 C 3,9 C 3,2 km/h (1 Bft) 100,00 %
10.12.2016 16:38 3,8 C 83 % 1025,0 hPa 0,0 l/m 2,3 km/h (1 Bft) S 186 0 min 0,000 mm 0,0 UV-I 0 W/m 1,2 C 3,8 C 3,2 km/h (1 Bft) 100,00 %
10.12.2016 16:40 3,8 C 84 % 1025,1 hPa 0,0 l/m 3,2 km/h (1 Bft) S 180 0 min 0,000 mm 0,0 UV-I 0 W/m 1,4 C 3,8 C 4,8 km/h (1 Bft) 100,00 %
10.12.2016 16:42 3,9 C 84 % 1025,0 hPa 0,0 l/m 3,1 km/h (1 Bft) S 180 0 min 0,000 mm 0,0 UV-I 0 W/m 1,4 C 3,9 C 4,8 km/h (1 Bft) 100,00 %
10.12.2016 16:44 3,9 C 83 % 1025,0 hPa 0,0 l/m 2,5 km/h (1 Bft) S 180 0 min 0,000 mm 0,0 UV-I 0 W/m 1,3 C 3,9 C 3,2 km/h (1 Bft) 97,87 %
10.12.2016 16:46 4,0 C 84 % 1025,0 hPa 0,0 l/m 3,1 km/h (1 Bft) S 180 0 min 0,000 mm 0,0 UV-I 0 W/m 1,5 C 4,0 C 4,8 km/h (1 Bft) 100,00 %
10.12.2016 16:48 4,1 C 84 % 1025,1 hPa 0,0 l/m 2,3 km/h (1 Bft) S 180 0 min 0,000 mm 0,0 UV-I 0 W/m 1,6 C 4,1 C 3,2 km/h (1 Bft) 100,00 %
10.12.2016 16:50 4,2 C 83 % 1025,1 hPa 0,0 l/m 1,7 km/h (1 Bft) S 180 0 min 0,000 mm 0,0 UV-I 0 W/m 1,6 C 4,2 C 3,2 km/h (1 Bft) 100,00 %
10.12.2016 16:52 4,4 C 83 % 1025,1 hPa 0,0 l/m 1,1 km/h (1 Bft) S 180 0 min 0,000 mm 0,0 UV-I 0 W/m 1,8 C 4,4 C 3,2 km/h (1 Bft) 100,00 %
10.12.2016 16:54 4,4 C 82 % 1025,1 hPa 0,0 l/m 1,1 km/h (1 Bft) S 180 0 min 0,000 mm 0,0 UV-I 0 W/m 1,6 C 4,4 C 3,2 km/h (1 Bft) 100,00 %
10.12.2016 16:56 4,4 C 82 % 1025,1 hPa 0,0 l/m 1,3 km/h (1 Bft) S 180 0 min 0,000 mm 0,0 UV-I 0 W/m 1,6 C 4,4 C 3,2 km/h (1 Bft) 98,00 %
10.12.2016 16:58 4,4 C 82 % 1025,1 hPa 0,0 l/m 0,4 km/h (0 Bft) S 180 0 min 0,000 mm 0,0 UV-I 0 W/m 1,6 C 4,4 C 1,6 km/h (1 Bft) 100,00 %
10.12.2016 17:00 4,2 C 82 % 1025,1 hPa 0,0 l/m 0,7 km/h (0 Bft) S 180 0 min 0,000 mm 0,0 UV-I 0 W/m 1,4 C 4,2 C 1,6 km/h (1 Bft) 100,00 %
10.12.2016 17:02 4,0 C 82 % 1025,0 hPa 0,0 l/m 0,8 km/h (0 Bft) S 180 0 min 0,000 mm 0,0 UV-I 0 W/m 1,2 C 4,0 C 1,6 km/h (1 Bft) 98,21 %
10.12.2016 17:04 3,7 C 82 % 1025,0 hPa 0,0 l/m 1,2 km/h (1 Bft) S 180 0 min 0,000 mm 0,0 UV-I 0 W/m 0,9 C 3,7 C 1,6 km/h (1 Bft) 100,00 %
10.12.2016 17:06 3,4 C 84 % 1025,0 hPa 0,0 l/m 0,1 km/h (0 Bft) S 180 0 min 0,000 mm 0,0 UV-I 0 W/m 1,0 C 3,4 C 1,6 km/h (1 Bft) 100,00 %
10.12.2016 17:08 3,4 C 85 % 1025,0 hPa 0,0 l/m 0,1 km/h (0 Bft) S 180 0 min 0,000 mm 0,0 UV-I 0 W/m 1,1 C 3,4 C 1,6 km/h (1 Bft) 97,87 %
10.12.2016 17:10 3,4 C 85 % 1025,0 hPa 0,0 l/m 0,3 km/h (0 Bft) S 180 0 min 0,000 mm 0,0 UV-I 0 W/m 1,1 C 3,4 C 1,6 km/h (1 Bft) 100,00 %
10.12.2016 17:12 3,3 C 85 % 1025,0 hPa 0,0 l/m 0,1 km/h (0 Bft) S 180 0 min 0,000 mm 0,0 UV-I 0 W/m 1,0 C 3,3 C 1,6 km/h (1 Bft) 97,87 %
10.12.2016 17:14 3,2 C 85 % 1025,1 hPa 0,0 l/m 0,7 km/h (0 Bft) S 180 0 min 0,000 mm 0,0 UV-I 0 W/m 0,9 C 3,2 C 1,6 km/h (1 Bft) 100,00 %
10.12.2016 17:16 3,1 C 86 % 1025,1 hPa 0,0 l/m 1,1 km/h (1 Bft) S 180 0 min 0,000 mm 0,0 UV-I 0 W/m 1,0 C 3,1 C 3,2 km/h (1 Bft) 98,08 %
10.12.2016 17:18 3,0 C 86 % 1025,1 hPa 0,0 l/m 1,8 km/h (1 Bft) S 180 0 min 0,000 mm 0,0 UV-I 0 W/m 0,9 C 3,0 C 3,2 km/h (1 Bft) 100,00 %
10.12.2016 17:20 3,0 C 87 % 1025,1 hPa 0,0 l/m 1,1 km/h (1 Bft) S 180 0 min 0,000 mm 0,0 UV-I 0 W/m 1,1 C 3,0 C 1,6 km/h (1 Bft) 100,00 %
10.12.2016 17:22 3,1 C 87 % 1025,1 hPa 0,0 l/m 1,5 km/h (1 Bft) S 180 0 min 0,000 mm 0,0 UV-I 0 W/m 1,2 C 3,1 C 3,2 km/h (1 Bft) 100,00 %
10.12.2016 17:24 3,1 C 87 % 1025,1 hPa 0,0 l/m 0,4 km/h (0 Bft) S 180 0 min 0,000 mm 0,0 UV-I 0 W/m 1,2 C 3,1 C 1,6 km/h (1 Bft) 100,00 %
10.12.2016 17:26 3,1 C 87 % 1025,1 hPa 0,0 l/m 0,0 km/h (0 Bft) S 180 0 min 0,000 mm 0,0 UV-I 0 W/m 1,2 C 3,1 C 1,6 km/h (1 Bft) 100,00 %
10.12.2016 17:28 3,1 C 87 % 1025,1 hPa 0,0 l/m 0,0 km/h (0 Bft) S 180 0 min 0,000 mm 0,0 UV-I 0 W/m 1,2 C 3,1 C 0,0 km/h (0 Bft) 100,00 %
10.12.2016 17:30 3,2 C 87 % 1025,0 hPa 0,0 l/m 0,0 km/h (0 Bft) S 180 0 min 0,000 mm 0,0 UV-I 0 W/m 1,2 C 3,2 C 1,6 km/h (1 Bft) 97,37 %
10.12.2016 17:32 3,1 C 86 % 1025,1 hPa 0,0 l/m 0,2 km/h (0 Bft) S 180 0 min 0,000 mm 0,0 UV-I 0 W/m 1,0 C 3,1 C 1,6 km/h (1 Bft) 98,00 %
10.12.2016 17:34 2,8 C 86 % 1025,0 hPa 0,0 l/m 1,0 km/h (0 Bft) S 180 0 min 0,000 mm 0,0 UV-I 0 W/m 0,7 C 2,8 C 1,6 km/h (1 Bft) 100,00 %
10.12.2016 17:36 2,6 C 87 % 1025,0 hPa 0,0 l/m 1,1 km/h (1 Bft) S 180 0 min 0,000 mm 0,0 UV-I 0 W/m 0,7 C 2,6 C 3,2 km/h (1 Bft) 96,00 %
10.12.2016 17:38 2,6 C 88 % 1025,0 hPa 0,0 l/m 0,0 km/h (0 Bft) S 180 0 min 0,000 mm 0,0 UV-I 0 W/m 0,8 C 2,6 C 0,0 km/h (0 Bft) 97,37 %
10.12.2016 17:40 2,8 C 88 % 1025,0 hPa 0,0 l/m 0,0 km/h (0 Bft) S 180 0 min 0,000 mm 0,0 UV-I 0 W/m 1,0 C 2,8 C 0,0 km/h (0 Bft) 96,00 %
10.12.2016 17:42 2,9 C 88 % 1025,0 hPa 0,0 l/m 0,0 km/h (0 Bft) S 180 0 min 0,000 mm 0,0 UV-I 0 W/m 1,1 C 2,9 C 0,0 km/h (0 Bft) 98,11 %
10.12.2016 17:44 3,0 C 88 % 1025,1 hPa 0,0 l/m 0,0 km/h (0 Bft) S 180 0 min 0,000 mm 0,0 UV-I 0 W/m 1,2 C 3,0 C 0,0 km/h (0 Bft) 97,56 %
10.12.2016 17:46 3,1 C 88 % 1025,1 hPa 0,0 l/m 0,0 km/h (0 Bft) S 180 0 min 0,000 mm 0,0 UV-I 0 W/m 1,3 C 3,1 C 0,0 km/h (0 Bft) 98,00 %
10.12.2016 17:48 3,1 C 88 % 1025,1 hPa 0,0 l/m 0,3 km/h (0 Bft) S 180 0 min 0,000 mm 0,0 UV-I 0 W/m 1,3 C 3,1 C 1,6 km/h (1 Bft) 97,87 %
10.12.2016 17:50 3,1 C 87 % 1025,2 hPa 0,0 l/m 0,9 km/h (0 Bft) S 180 0 min 0,000 mm 0,0 UV-I 0 W/m 1,2 C 3,1 C 1,6 km/h (1 Bft) 97,22 %
10.12.2016 17:52 3,2 C 88 % 1025,1 hPa 0,0 l/m 1,6 km/h (1 Bft) S 180 0 min 0,000 mm 0,0 UV-I 0 W/m 1,4 C 3,2 C 3,2 km/h (1 Bft) 96,00 %
10.12.2016 17:54 3,2 C 87 % 1025,1 hPa 0,0 l/m 1,6 km/h (1 Bft) S 180 0 min 0,000 mm 0,0 UV-I 0 W/m 1,2 C 3,2 C 3,2 km/h (1 Bft) 96,15 %
10.12.2016 17:56 3,2 C 87 % 1025,1 hPa 0,0 l/m 1,8 km/h (1 Bft) S 180 0 min 0,000 mm 0,0 UV-I 0 W/m 1,2 C 3,2 C 3,2 km/h (1 Bft) 97,22 %
10.12.2016 17:58 3,1 C 87 % 1025,1 hPa 0,0 l/m 2,2 km/h (1 Bft) S 180 0 min 0,000 mm 0,0 UV-I 0 W/m 1,2 C 3,1 C 3,2 km/h (1 Bft) 96,23 %
10.12.2016 18:00 3,1 C 87 % 1025,1 hPa 0,0 l/m 2,0 km/h (1 Bft) S 180 0 min 0,000 mm 0,0 UV-I 0 W/m 1,2 C 3,1 C 3,2 km/h (1 Bft) 98,11 %
10.12.2016 18:02 2,9 C 87 % 1025,1 hPa 0,0 l/m 2,2 km/h (1 Bft) S 180 0 min 0,000 mm 0,0 UV-I 0 W/m 1,0 C 2,9 C 3,2 km/h (1 Bft) 97,37 %
10.12.2016 18:04 2,9 C 87 % 1025,2 hPa 0,0 l/m 2,3 km/h (1 Bft) S 180 0 min 0,000 mm 0,0 UV-I 0 W/m 1,0 C 2,9 C 3,2 km/h (1 Bft) 98,21 %
10.12.2016 18:06 2,8 C 87 % 1025,1 hPa 0,0 l/m 2,3 km/h (1 Bft) S 180 0 min 0,000 mm 0,0 UV-I 0 W/m 0,9 C 2,8 C 3,2 km/h (1 Bft) 98,00 %
10.12.2016 18:08 2,6 C 87 % 1025,1 hPa 0,0 l/m 1,7 km/h (1 Bft) S 180 0 min 0,000 mm 0,0 UV-I 0 W/m 0,7 C 2,6 C 3,2 km/h (1 Bft) 95,74 %
10.12.2016 18:10 2,6 C 88 % 1025,2 hPa 0,0 l/m 1,8 km/h (1 Bft) S 180 0 min 0,000 mm 0,0 UV-I 0 W/m 0,8 C 2,6 C 3,2 km/h (1 Bft) 95,74 %
10.12.2016 18:12 2,7 C 89 % 1025,2 hPa 0,0 l/m 1,9 km/h (1 Bft) S 180 0 min 0,000 mm 0,0 UV-I 0 W/m 1,1 C 2,7 C 3,2 km/h (1 Bft) 97,37 %
10.12.2016 18:14 2,8 C 89 % 1025,1 hPa 0,0 l/m 1,9 km/h (1 Bft) S 180 0 min 0,000 mm 0,0 UV-I 0 W/m 1,2 C 2,8 C 3,2 km/h (1 Bft) 96,00 %
10.12.2016 18:16 2,8 C 89 % 1025,1 hPa 0,0 l/m 1,0 km/h (0 Bft) S 180 0 min 0,000 mm 0,0 UV-I 0 W/m 1,2 C 2,8 C 1,6 km/h (1 Bft) 96,00 %
10.12.2016 18:18 2,9 C 89 % 1025,1 hPa 0,0 l/m 0,8 km/h (0 Bft) S 180 0 min 0,000 mm 0,0 UV-I 0 W/m 1,3 C 2,9 C 1,6 km/h (1 Bft) 97,73 %
10.12.2016 18:20 2,9 C 88 % 1025,1 hPa 0,0 l/m 0,7 km/h (0 Bft) S 180 0 min 0,000 mm 0,0 UV-I 0 W/m 1,1 C 2,9 C 1,6 km/h (1 Bft) 97,87 %
10.12.2016 18:22 3,0 C 88 % 1025,1 hPa 0,0 l/m 0,2 km/h (0 Bft) S 180 0 min 0,000 mm 0,0 UV-I 0 W/m 1,2 C 3,0 C 1,6 km/h (1 Bft) 98,08 %
10.12.2016 18:24 3,1 C 88 % 1025,1 hPa 0,0 l/m 0,4 km/h (0 Bft) S 180 0 min 0,000 mm 0,0 UV-I 0 W/m 1,3 C 3,1 C 1,6 km/h (1 Bft) 97,37 %
10.12.2016 18:26 3,2 C 88 % 1025,1 hPa 0,0 l/m 0,0 km/h (0 Bft) S 180 0 min 0,000 mm 0,0 UV-I 0 W/m 1,4 C 3,2 C 0,0 km/h (0 Bft) 100,00 %
10.12.2016 18:28 3,3 C 88 % 1025,1 hPa 0,0 l/m 0,0 km/h (0 Bft) S 180 0 min 0,000 mm 0,0 UV-I 0 W/m 1,5 C 3,3 C 0,0 km/h (0 Bft) 100,00 %
10.12.2016 18:30 3,3 C 87 % 1025,1 hPa 0,0 l/m 0,0 km/h (0 Bft) S 180 0 min 0,000 mm 0,0 UV-I 0 W/m 1,3 C 3,3 C 0,0 km/h (0 Bft) 97,87 %
10.12.2016 18:32 3,2 C 86 % 1025,1 hPa 0,0 l/m 0,0 km/h (0 Bft) S 180 0 min 0,000 mm 0,0 UV-I 0 W/m 1,1 C 3,2 C 0,0 km/h (0 Bft) 97,87 %
10.12.2016 18:34 3,1 C 86 % 1025,1 hPa 0,0 l/m 0,0 km/h (0 Bft) S 180 0 min 0,000 mm 0,0 UV-I 0 W/m 1,0 C 3,1 C 0,0 km/h (0 Bft) 100,00 %
10.12.2016 18:36 3,1 C 86 % 1025,1 hPa 0,0 l/m 0,0 km/h (0 Bft) S 180 0 min 0,000 mm 0,0 UV-I 0 W/m 1,0 C 3,1 C 0,0 km/h (0 Bft) 100,00 %
10.12.2016 18:38 3,0 C 87 % 1025,1 hPa 0,0 l/m 0,0 km/h (0 Bft) S 180 0 min 0,000 mm 0,0 UV-I 0 W/m 1,1 C 3,0 C 0,0 km/h (0 Bft) 97,87 %
10.12.2016 18:40 2,9 C 86 % 1025,1 hPa 0,0 l/m 1,2 km/h (1 Bft) S 180 0 min 0,000 mm 0,0 UV-I 0 W/m 0,8 C 2,9 C 3,2 km/h (1 Bft) 100,00 %
10.12.2016 18:42 2,9 C 86 % 1025,1 hPa 0,0 l/m 1,6 km/h (1 Bft) S 180 0 min 0,000 mm 0,0 UV-I 0 W/m 0,8 C 2,9 C 3,2 km/h (1 Bft) 100,00 %
10.12.2016 18:44 2,7 C 86 % 1025,0 hPa 0,0 l/m 2,2 km/h (1 Bft) S 180 0 min 0,000 mm 0,0 UV-I 0 W/m 0,6 C 2,7 C 3,2 km/h (1 Bft) 98,11 %
10.12.2016 18:46 2,5 C 86 % 1025,0 hPa 0,0 l/m 2,4 km/h (1 Bft) S 180 0 min 0,000 mm 0,0 UV-I 0 W/m 0,4 C 2,5 C 3,2 km/h (1 Bft) 96,00 %
10.12.2016 18:48 2,4 C 87 % 1025,1 hPa 0,0 l/m 2,6 km/h (1 Bft) S 180 0 min 0,000 mm 0,0 UV-I 0 W/m 0,5 C 2,4 C 3,2 km/h (1 Bft) 100,00 %
10.12.2016 18:50 2,3 C 87 % 1025,0 hPa 0,0 l/m 2,3 km/h (1 Bft) S 180 0 min 0,000 mm 0,0 UV-I 0 W/m 0,4 C 2,3 C 3,2 km/h (1 Bft) 97,87 %
10.12.2016 18:52 2,2 C 87 % 1025,1 hPa 0,0 l/m 1,9 km/h (1 Bft) S 180 0 min 0,000 mm 0,0 UV-I 0 W/m 0,3 C 2,2 C 3,2 km/h (1 Bft) 100,00 %
10.12.2016 18:54 2,1 C 88 % 1025,0 hPa 0,0 l/m 2,0 km/h (1 Bft) S 180 0 min 0,000 mm 0,0 UV-I 0 W/m 0,3 C 2,1 C 3,2 km/h (1 Bft) 100,00 %
10.12.2016 18:56 2,2 C 89 % 1025,0 hPa 0,0 l/m 3,3 km/h (1 Bft) S 180 0 min 0,000 mm 0,0 UV-I 0 W/m 0,6 C 2,2 C 4,8 km/h (1 Bft) 97,87 %
10.12.2016 18:58 2,2 C 88 % 1025,1 hPa 0,0 l/m 3,8 km/h (1 Bft) S 180 0 min 0,000 mm 0,0 UV-I 0 W/m 0,4 C 2,2 C 4,8 km/h (1 Bft) 98,00 %
10.12.2016 19:00 2,2 C 88 % 1025,1 hPa 0,0 l/m 3,6 km/h (1 Bft) S 180 0 min 0,000 mm 0,0 UV-I 0 W/m 0,4 C 2,2 C 4,8 km/h (1 Bft) 100,00 %
10.12.2016 19:02 2,2 C 88 % 1025,1 hPa 0,0 l/m 3,5 km/h (1 Bft) S 180 0 min 0,000 mm 0,0 UV-I 0 W/m 0,4 C 2,2 C 4,8 km/h (1 Bft) 100,00 %
10.12.2016 19:04 2,2 C 88 % 1025,0 hPa 0,0 l/m 3,6 km/h (1 Bft) S 180 0 min 0,000 mm 0,0 UV-I 0 W/m 0,4 C 2,2 C 4,8 km/h (1 Bft) 100,00 %
10.12.2016 19:06 2,1 C 88 % 1025,0 hPa 0,0 l/m 3,3 km/h (1 Bft) S 180 0 min 0,000 mm 0,0 UV-I 0 W/m 0,3 C 2,1 C 4,8 km/h (1 Bft) 100,00 %
10.12.2016 19:08 2,0 C 88 % 1025,0 hPa 0,0 l/m 3,1 km/h (1 Bft) S 180 0 min 0,000 mm 0,0 UV-I 0 W/m 0,2 C 2,0 C 4,8 km/h (1 Bft) 100,00 %
10.12.2016 19:10 1,8 C 88 % 1025,0 hPa 0,0 l/m 3,5 km/h (1 Bft) S 180 0 min 0,000 mm 0,0 UV-I 0 W/m 0,0 C 1,8 C 4,8 km/h (1 Bft) 100,00 %
10.12.2016 19:12 1,7 C 88 % 1025,0 hPa 0,0 l/m 3,8 km/h (1 Bft) S 180 0 min 0,000 mm 0,0 UV-I 0 W/m -0,1 C 1,7 C 4,8 km/h (1 Bft) 100,00 %
10.12.2016 19:14 1,6 C 89 % 1025,0 hPa 0,0 l/m 3,0 km/h (1 Bft) S 180 0 min 0,000 mm 0,0 UV-I 0 W/m -0,0 C 1,6 C 4,8 km/h (1 Bft) 100,00 %
10.12.2016 19:16 1,6 C 89 % 1025,0 hPa 0,0 l/m 1,7 km/h (1 Bft) S 180 0 min 0,000 mm 0,0 UV-I 0 W/m -0,0 C 1,6 C 3,2 km/h (1 Bft) 100,00 %
10.12.2016 19:18 1,6 C 90 % 1025,1 hPa 0,0 l/m 1,2 km/h (1 Bft) S 180 0 min 0,000 mm 0,0 UV-I 0 W/m 0,1 C 1,6 C 1,6 km/h (1 Bft) 100,00 %
10.12.2016 19:20 1,7 C 90 % 1025,1 hPa 0,0 l/m 0,6 km/h (0 Bft) S 180 0 min 0,000 mm 0,0 UV-I 0 W/m 0,2 C 1,7 C 1,6 km/h (1 Bft) 100,00 %
10.12.2016 19:22 1,8 C 90 % 1025,1 hPa 0,0 l/m 0,8 km/h (0 Bft) S 180 0 min 0,000 mm 0,0 UV-I 0 W/m 0,3 C 1,8 C 1,6 km/h (1 Bft) 100,00 %
10.12.2016 19:24 1,9 C 90 % 1025,1 hPa 0,0 l/m 0,0 km/h (0 Bft) S 180 0 min 0,000 mm 0,0 UV-I 0 W/m 0,4 C 1,9 C 1,6 km/h (1 Bft) 97,87 %
10.12.2016 19:26 1,9 C 90 % 1025,0 hPa 0,0 l/m 0,0 km/h (0 Bft) S 180 0 min 0,000 mm 0,0 UV-I 0 W/m 0,4 C 1,9 C 0,0 km/h (0 Bft) 100,00 %
10.12.2016 19:28 2,0 C 90 % 1025,0 hPa 0,0 l/m 0,0 km/h (0 Bft) S 180 0 min 0,000 mm 0,0 UV-I 0 W/m 0,5 C 2,0 C 0,0 km/h (0 Bft) 100,00 %
10.12.2016 19:30 2,1 C 90 % 1024,9 hPa 0,0 l/m 0,1 km/h (0 Bft) S 180 0 min 0,000 mm 0,0 UV-I 0 W/m 0,6 C 2,1 C 1,6 km/h (1 Bft) 100,00 %
10.12.2016 19:32 2,1 C 89 % 1024,9 hPa 0,0 l/m 0,7 km/h (0 Bft) S 180 0 min 0,000 mm 0,0 UV-I 0 W/m 0,5 C 2,1 C 1,6 km/h (1 Bft) 100,00 %
10.12.2016 19:34 1,9 C 88 % 1024,9 hPa 0,0 l/m 0,2 km/h (0 Bft) S 180 0 min 0,000 mm 0,0 UV-I 0 W/m 0,1 C 1,9 C 1,6 km/h (1 Bft) 100,00 %
10.12.2016 19:36 1,7 C 89 % 1024,9 hPa 0,0 l/m 1,1 km/h (1 Bft) S 180 0 min 0,000 mm 0,0 UV-I 0 W/m 0,1 C 1,7 C 1,6 km/h (1 Bft) 98,00 %
10.12.2016 19:38 1,4 C 88 % 1024,9 hPa 0,0 l/m 1,6 km/h (1 Bft) S 180 0 min 0,000 mm 0,0 UV-I 0 W/m -0,4 C 1,4 C 3,2 km/h (1 Bft) 100,00 %
10.12.2016 19:40 1,3 C 89 % 1024,9 hPa 0,0 l/m 2,0 km/h (1 Bft) S 180 0 min 0,000 mm 0,0 UV-I 0 W/m -0,3 C 1,3 C 3,2 km/h (1 Bft) 100,00 %
10.12.2016 19:42 1,2 C 89 % 1024,9 hPa 0,0 l/m 2,4 km/h (1 Bft) S 180 0 min 0,000 mm 0,0 UV-I 0 W/m -0,4 C 1,2 C 4,8 km/h (1 Bft) 100,00 %
10.12.2016 19:44 1,1 C 90 % 1024,9 hPa 0,0 l/m 2,3 km/h (1 Bft) S 180 0 min 0,000 mm 0,0 UV-I 0 W/m -0,4 C 1,1 C 3,2 km/h (1 Bft) 96,00 %
10.12.2016 19:46 1,2 C 91 % 1024,9 hPa 0,0 l/m 2,5 km/h (1 Bft) S 180 0 min 0,000 mm 0,0 UV-I 0 W/m -0,1 C 1,2 C 3,2 km/h (1 Bft) 100,00 %
10.12.2016 19:48 1,2 C 91 % 1024,8 hPa 0,0 l/m 2,9 km/h (1 Bft) S 180 0 min 0,000 mm 0,0 UV-I 0 W/m -0,1 C 1,2 C 4,8 km/h (1 Bft) 100,00 %
10.12.2016 19:50 1,3 C 91 % 1024,8 hPa 0,0 l/m 2,9 km/h (1 Bft) S 180 0 min 0,000 mm 0,0 UV-I 0 W/m -0,0 C 1,3 C 4,8 km/h (1 Bft) 100,00 %
10.12.2016 19:52 1,4 C 92 % 1024,8 hPa 0,0 l/m 3,3 km/h (1 Bft) S 180 0 min 0,000 mm 0,0 UV-I 0 W/m 0,2 C 1,4 C 4,8 km/h (1 Bft) 100,00 %
10.12.2016 19:54 1,3 C 92 % 1024,8 hPa 0,0 l/m 3,3 km/h (1 Bft) S 180 0 min 0,000 mm 0,0 UV-I 0 W/m 0,1 C 1,3 C 4,8 km/h (1 Bft) 100,00 %
10.12.2016 19:56 1,4 C 92 % 1024,8 hPa 0,0 l/m 3,2 km/h (1 Bft) S 180 0 min 0,000 mm 0,0 UV-I 0 W/m 0,2 C 1,4 C 4,8 km/h (1 Bft) 100,00 %
10.12.2016 19:58 1,3 C 92 % 1024,8 hPa 0,0 l/m 3,4 km/h (1 Bft) S 180 0 min 0,000 mm 0,0 UV-I 0 W/m 0,1 C 1,3 C 4,8 km/h (1 Bft) 100,00 %
10.12.2016 20:00 1,3 C 92 % 1024,8 hPa 0,0 l/m 3,3 km/h (1 Bft) S 180 0 min 0,000 mm 0,0 UV-I 0 W/m 0,1 C 1,3 C 4,8 km/h (1 Bft) 100,00 %
10.12.2016 20:02 1,3 C 92 % 1024,8 hPa 0,0 l/m 3,2 km/h (1 Bft) S 180 0 min 0,000 mm 0,0 UV-I 0 W/m 0,1 C 1,3 C 6,4 km/h (2 Bft) 100,00 %
10.12.2016 20:04 1,3 C 92 % 1024,8 hPa 0,0 l/m 3,1 km/h (1 Bft) S 180 0 min 0,000 mm 0,0 UV-I 0 W/m 0,1 C 1,3 C 6,4 km/h (2 Bft) 95,74 %
10.12.2016 20:06 1,2 C 92 % 1024,8 hPa 0,0 l/m 3,9 km/h (1 Bft) S 180 0 min 0,000 mm 0,0 UV-I 0 W/m 0,0 C 1,2 C 6,4 km/h (2 Bft) 100,00 %
10.12.2016 20:08 1,2 C 92 % 1024,8 hPa 0,0 l/m 3,6 km/h (1 Bft) S 180 0 min 0,000 mm 0,0 UV-I 0 W/m 0,0 C 1,2 C 4,8 km/h (1 Bft) 100,00 %
10.12.2016 20:10 1,2 C 92 % 1024,8 hPa 0,0 l/m 3,6 km/h (1 Bft) S 180 0 min 0,000 mm 0,0 UV-I 0 W/m 0,0 C 1,2 C 4,8 km/h (1 Bft) 96,43 %
10.12.2016 20:12 1,2 C 93 % 1024,8 hPa 0,0 l/m 3,4 km/h (1 Bft) S 180 0 min 0,000 mm 0,0 UV-I 0 W/m 0,2 C 1,2 C 4,8 km/h (1 Bft) 100,00 %
10.12.2016 20:14 1,3 C 93 % 1024,8 hPa 0,0 l/m 2,7 km/h (1 Bft) S 180 0 min 0,000 mm 0,0 UV-I 0 W/m 0,3 C 1,3 C 4,8 km/h (1 Bft) 100,00 %
10.12.2016 20:16 1,4 C 93 % 1024,7 hPa 0,0 l/m 3,0 km/h (1 Bft) S 180 0 min 0,000 mm 0,0 UV-I 0 W/m 0,4 C 1,4 C 4,8 km/h (1 Bft) 100,00 %
10.12.2016 20:18 1,6 C 94 % 1024,8 hPa 0,0 l/m 3,4 km/h (1 Bft) S 180 0 min 0,000 mm 0,0 UV-I 0 W/m 0,7 C 1,6 C 6,4 km/h (2 Bft) 96,00 %
10.12.2016 20:20 1,7 C 93 % 1024,8 hPa 0,0 l/m 2,2 km/h (1 Bft) S 180 0 min 0,000 mm 0,0 UV-I 0 W/m 0,7 C 1,7 C 3,2 km/h (1 Bft) 98,00 %
10.12.2016 20:22 1,8 C 93 % 1024,7 hPa 0,0 l/m 2,4 km/h (1 Bft) S 180 0 min 0,000 mm 0,0 UV-I 0 W/m 0,8 C 1,8 C 3,2 km/h (1 Bft) 95,74 %
10.12.2016 20:24 1,9 C 94 % 1024,7 hPa 0,0 l/m 1,7 km/h (1 Bft) S 180 0 min 0,000 mm 0,0 UV-I 0 W/m 1,0 C 1,9 C 3,2 km/h (1 Bft) 97,87 %
10.12.2016 20:26 2,0 C 94 % 1024,7 hPa 0,0 l/m 2,2 km/h (1 Bft) S 180 0 min 0,000 mm 0,0 UV-I 0 W/m 1,1 C 2,0 C 3,2 km/h (1 Bft) 94,74 %
10.12.2016 20:28 2,1 C 93 % 1024,7 hPa 0,0 l/m 2,8 km/h (1 Bft) S 179 0 min 0,000 mm 0,0 UV-I 0 W/m 1,1 C 2,1 C 4,8 km/h (1 Bft) 98,00 %
10.12.2016 20:30 2,1 C 93 % 1024,7 hPa 0,0 l/m 2,2 km/h (1 Bft) S 179 0 min 0,000 mm 0,0 UV-I 0 W/m 1,1 C 2,1 C 3,2 km/h (1 Bft) 95,56 %
10.12.2016 20:32 2,2 C 93 % 1024,7 hPa 0,0 l/m 2,1 km/h (1 Bft) S 179 0 min 0,000 mm 0,0 UV-I 0 W/m 1,2 C 2,2 C 3,2 km/h (1 Bft) 96,23 %
10.12.2016 20:34 2,2 C 93 % 1024,6 hPa 0,0 l/m 1,5 km/h (1 Bft) S 179 0 min 0,000 mm 0,0 UV-I 0 W/m 1,2 C 2,2 C 3,2 km/h (1 Bft) 95,74 %
10.12.2016 20:36 2,3 C 93 % 1024,6 hPa 0,0 l/m 1,2 km/h (1 Bft) S 180 0 min 0,000 mm 0,0 UV-I 0 W/m 1,3 C 2,3 C 3,2 km/h (1 Bft) 97,87 %
10.12.2016 20:38 2,4 C 93 % 1024,6 hPa 0,0 l/m 1,9 km/h (1 Bft) S 180 0 min 0,000 mm 0,0 UV-I 0 W/m 1,4 C 2,4 C 3,2 km/h (1 Bft) 98,00 %
10.12.2016 20:40 2,4 C 93 % 1024,5 hPa 0,0 l/m 2,2 km/h (1 Bft) S 179 0 min 0,000 mm 0,0 UV-I 0 W/m 1,4 C 2,4 C 4,8 km/h (1 Bft) 97,73 %
10.12.2016 20:42 2,5 C 92 % 1024,5 hPa 0,0 l/m 1,9 km/h (1 Bft) S 179 0 min 0,000 mm 0,0 UV-I 0 W/m 1,3 C 2,5 C 3,2 km/h (1 Bft) 96,15 %
10.12.2016 20:44 2,4 C 92 % 1024,5 hPa 0,0 l/m 2,2 km/h (1 Bft) S 179 0 min 0,000 mm 0,0 UV-I 0 W/m 1,2 C 2,4 C 3,2 km/h (1 Bft) 98,39 %
10.12.2016 20:46 2,3 C 91 % 1024,5 hPa 0,0 l/m 1,5 km/h (1 Bft) S 179 0 min 0,000 mm 0,0 UV-I 0 W/m 1,0 C 2,3 C 3,2 km/h (1 Bft) 97,87 %
10.12.2016 20:48 2,2 C 91 % 1024,5 hPa 0,0 l/m 2,4 km/h (1 Bft) S 179 0 min 0,000 mm 0,0 UV-I 0 W/m 0,9 C 2,2 C 3,2 km/h (1 Bft) 97,37 %
10.12.2016 20:50 2,1 C 91 % 1024,5 hPa 0,0 l/m 3,0 km/h (1 Bft) S 179 0 min 0,000 mm 0,0 UV-I 0 W/m 0,8 C 2,1 C 4,8 km/h (1 Bft) 96,77 %
10.12.2016 20:52 1,8 C 91 % 1024,5 hPa 0,0 l/m 3,5 km/h (1 Bft) S 179 0 min 0,000 mm 0,0 UV-I 0 W/m 0,5 C 1,8 C 4,8 km/h (1 Bft) 98,00 %
10.12.2016 20:54 1,6 C 91 % 1024,4 hPa 0,0 l/m 3,8 km/h (1 Bft) S 180 0 min 0,000 mm 0,0 UV-I 0 W/m 0,3 C 1,6 C 4,8 km/h (1 Bft) 97,56 %
10.12.2016 20:56 1,4 C 91 % 1024,4 hPa 0,0 l/m 3,4 km/h (1 Bft) S 180 0 min 0,000 mm 0,0 UV-I 0 W/m 0,1 C 1,4 C 4,8 km/h (1 Bft) 100,00 %
10.12.2016 20:58 1,2 C 91 % 1024,4 hPa 0,0 l/m 3,3 km/h (1 Bft) S 180 0 min 0,000 mm 0,0 UV-I 0 W/m -0,1 C 1,2 C 4,8 km/h (1 Bft) 100,00 %
10.12.2016 21:00 1,2 C 92 % 1024,4 hPa 0,0 l/m 3,2 km/h (1 Bft) S 179 0 min 0,000 mm 0,0 UV-I 0 W/m 0,0 C 1,2 C 4,8 km/h (1 Bft) 97,73 %
10.12.2016 21:02 1,2 C 93 % 1024,4 hPa 0,0 l/m 3,2 km/h (1 Bft) S 180 0 min 0,000 mm 0,0 UV-I 0 W/m 0,2 C 1,2 C 4,8 km/h (1 Bft) 100,00 %
10.12.2016 21:04 1,3 C 93 % 1024,4 hPa 0,0 l/m 2,1 km/h (1 Bft) S 180 0 min 0,000 mm 0,0 UV-I 0 W/m 0,3 C 1,3 C 3,2 km/h (1 Bft) 100,00 %
10.12.2016 21:06 1,3 C 94 % 1024,3 hPa 0,0 l/m 1,8 km/h (1 Bft) S 180 0 min 0,000 mm 0,0 UV-I 0 W/m 0,4 C 1,3 C 3,2 km/h (1 Bft) 97,87 %
10.12.2016 21:08 1,3 C 93 % 1024,4 hPa 0,0 l/m 2,5 km/h (1 Bft) S 180 0 min 0,000 mm 0,0 UV-I 0 W/m 0,3 C 1,3 C 3,2 km/h (1 Bft) 97,87 %
10.12.2016 21:10 1,3 C 93 % 1024,3 hPa 0,0 l/m 1,1 km/h (1 Bft) S 180 0 min 0,000 mm 0,0 UV-I 0 W/m 0,3 C 1,3 C 3,2 km/h (1 Bft) 100,00 %
10.12.2016 21:12 1,3 C 93 % 1024,3 hPa 0,0 l/m 1,8 km/h (1 Bft) S 180 0 min 0,000 mm 0,0 UV-I 0 W/m 0,3 C 1,3 C 3,2 km/h (1 Bft) 100,00 %
10.12.2016 21:14 1,2 C 93 % 1024,3 hPa 0,0 l/m 1,9 km/h (1 Bft) S 180 0 min 0,000 mm 0,0 UV-I 0 W/m 0,2 C 1,2 C 3,2 km/h (1 Bft) 97,37 %
10.12.2016 21:16 1,2 C 93 % 1024,3 hPa 0,0 l/m 1,5 km/h (1 Bft) S 179 0 min 0,000 mm 0,0 UV-I 0 W/m 0,2 C 1,2 C 3,2 km/h (1 Bft) 100,00 %
10.12.2016 21:18 1,0 C 93 % 1024,3 hPa 0,0 l/m 1,8 km/h (1 Bft) S 180 0 min 0,000 mm 0,0 UV-I 0 W/m -0,0 C 1,0 C 3,2 km/h (1 Bft) 100,00 %
10.12.2016 21:20 1,0 C 93 % 1024,3 hPa 0,0 l/m 1,8 km/h (1 Bft) S 180 0 min 0,000 mm 0,0 UV-I 0 W/m -0,0 C 1,0 C 3,2 km/h (1 Bft) 100,00 %
10.12.2016 21:22 1,1 C 94 % 1024,4 hPa 0,0 l/m 1,7 km/h (1 Bft) S 180 0 min 0,000 mm 0,0 UV-I 0 W/m 0,2 C 1,1 C 3,2 km/h (1 Bft) 100,00 %
10.12.2016 21:24 1,1 C 93 % 1024,3 hPa 0,0 l/m 2,6 km/h (1 Bft) S 180 0 min 0,000 mm 0,0 UV-I 0 W/m 0,1 C 1,1 C 3,2 km/h (1 Bft) 100,00 %
10.12.2016 21:26 1,0 C 94 % 1024,3 hPa 0,0 l/m 2,5 km/h (1 Bft) S 179 0 min 0,000 mm 0,0 UV-I 0 W/m 0,1 C 1,0 C 4,8 km/h (1 Bft) 97,56 %
10.12.2016 21:28 0,9 C 94 % 1024,3 hPa 0,0 l/m 2,1 km/h (1 Bft) S 180 0 min 0,000 mm 0,0 UV-I 0 W/m 0,0 C 0,9 C 3,2 km/h (1 Bft) 100,00 %
10.12.2016 21:30 0,9 C 94 % 1024,2 hPa 0,0 l/m 1,7 km/h (1 Bft) S 180 0 min 0,000 mm 0,0 UV-I 0 W/m 0,0 C 0,9 C 3,2 km/h (1 Bft) 100,00 %
10.12.2016 21:32 1,0 C 94 % 1024,2 hPa 0,0 l/m 3,0 km/h (1 Bft) S 180 0 min 0,000 mm 0,0 UV-I 0 W/m 0,1 C 1,0 C 4,8 km/h (1 Bft) 98,00 %
10.12.2016 21:34 1,0 C 94 % 1024,2 hPa 0,0 l/m 2,9 km/h (1 Bft) S 180 0 min 0,000 mm 0,0 UV-I 0 W/m 0,1 C 1,0 C 4,8 km/h (1 Bft) 100,00 %
10.12.2016 21:36 1,1 C 94 % 1024,2 hPa 0,0 l/m 3,8 km/h (1 Bft) S 180 0 min 0,000 mm 0,0 UV-I 0 W/m 0,2 C 1,1 C 4,8 km/h (1 Bft) 100,00 %
10.12.2016 21:38 1,2 C 94 % 1024,1 hPa 0,0 l/m 3,1 km/h (1 Bft) S 180 0 min 0,000 mm 0,0 UV-I 0 W/m 0,3 C 1,2 C 4,8 km/h (1 Bft) 100,00 %
10.12.2016 21:40 1,3 C 95 % 1024,1 hPa 0,0 l/m 3,5 km/h (1 Bft) S 180 0 min 0,000 mm 0,0 UV-I 0 W/m 0,6 C 1,3 C 4,8 km/h (1 Bft) 100,00 %
10.12.2016 21:42 1,3 C 95 % 1024,0 hPa 0,0 l/m 2,8 km/h (1 Bft) S 180 0 min 0,000 mm 0,0 UV-I 0 W/m 0,6 C 1,3 C 3,2 km/h (1 Bft) 100,00 %
10.12.2016 21:44 1,4 C 94 % 1024,0 hPa 0,0 l/m 2,2 km/h (1 Bft) S 180 0 min 0,000 mm 0,0 UV-I 0 W/m 0,5 C 1,4 C 3,2 km/h (1 Bft) 100,00 %
10.12.2016 21:46 1,4 C 94 % 1024,0 hPa 0,0 l/m 2,5 km/h (1 Bft) S 180 0 min 0,000 mm 0,0 UV-I 0 W/m 0,5 C 1,4 C 4,8 km/h (1 Bft) 100,00 %
10.12.2016 21:48 1,3 C 94 % 1024,0 hPa 0,0 l/m 2,3 km/h (1 Bft) S 180 0 min 0,000 mm 0,0 UV-I 0 W/m 0,4 C 1,3 C 4,8 km/h (1 Bft) 100,00 %
10.12.2016 21:50 1,2 C 94 % 1024,0 hPa 0,0 l/m 1,8 km/h (1 Bft) S 180 0 min 0,000 mm 0,0 UV-I 0 W/m 0,3 C 1,2 C 4,8 km/h (1 Bft) 100,00 %
10.12.2016 21:52 1,1 C 93 % 1023,9 hPa 0,0 l/m 2,0 km/h (1 Bft) S 180 0 min 0,000 mm 0,0 UV-I 0 W/m 0,1 C 1,1 C 4,8 km/h (1 Bft) 100,00 %
10.12.2016 21:54 1,1 C 94 % 1023,8 hPa 0,0 l/m 2,1 km/h (1 Bft) S 180 0 min 0,000 mm 0,0 UV-I 0 W/m 0,2 C 1,1 C 3,2 km/h (1 Bft) 100,00 %
10.12.2016 21:56 1,0 C 94 % 1023,9 hPa 0,0 l/m 2,6 km/h (1 Bft) S 180 0 min 0,000 mm 0,0 UV-I 0 W/m 0,1 C 1,0 C 4,8 km/h (1 Bft) 97,44 %
10.12.2016 21:58 1,0 C 94 % 1023,8 hPa 0,0 l/m 2,1 km/h (1 Bft) S 180 0 min 0,000 mm 0,0 UV-I 0 W/m 0,1 C 1,0 C 4,8 km/h (1 Bft) 100,00 %
10.12.2016 22:00 0,9 C 94 % 1023,9 hPa 0,0 l/m 2,3 km/h (1 Bft) S 180 0 min 0,000 mm 0,0 UV-I 0 W/m 0,0 C 0,9 C 3,2 km/h (1 Bft) 100,00 %
10.12.2016 22:02 0,8 C 94 % 1023,9 hPa 0,0 l/m 1,9 km/h (1 Bft) S 180 0 min 0,000 mm 0,0 UV-I 0 W/m -0,1 C 0,8 C 3,2 km/h (1 Bft) 97,87 %
10.12.2016 22:04 0,8 C 94 % 1023,8 hPa 0,0 l/m 2,1 km/h (1 Bft) S 180 0 min 0,000 mm 0,0 UV-I 0 W/m -0,1 C 0,8 C 3,2 km/h (1 Bft) 100,00 %
10.12.2016 22:06 0,8 C 94 % 1023,7 hPa 0,0 l/m 1,6 km/h (1 Bft) S 179 0 min 0,000 mm 0,0 UV-I 0 W/m -0,1 C 0,8 C 3,2 km/h (1 Bft) 100,00 %
10.12.2016 22:08 0,8 C 94 % 1023,8 hPa 0,0 l/m 1,2 km/h (1 Bft) S 180 0 min 0,000 mm 0,0 UV-I 0 W/m -0,1 C 0,8 C 1,6 km/h (1 Bft) 100,00 %
10.12.2016 22:10 0,8 C 94 % 1023,7 hPa 0,0 l/m 0,8 km/h (0 Bft) S 179 0 min 0,000 mm 0,0 UV-I 0 W/m -0,1 C 0,8 C 3,2 km/h (1 Bft) 100,00 %
10.12.2016 22:12 0,7 C 94 % 1023,8 hPa 0,0 l/m 2,2 km/h (1 Bft) S 180 0 min 0,000 mm 0,0 UV-I 0 W/m -0,2 C 0,7 C 4,8 km/h (1 Bft) 97,73 %
10.12.2016 22:14 0,8 C 94 % 1023,7 hPa 0,0 l/m 2,5 km/h (1 Bft) S 180 0 min 0,000 mm 0,0 UV-I 0 W/m -0,1 C 0,8 C 3,2 km/h (1 Bft) 96,23 %
10.12.2016 22:16 0,8 C 94 % 1023,7 hPa 0,0 l/m 1,4 km/h (1 Bft) S 180 0 min 0,000 mm 0,0 UV-I 0 W/m -0,1 C 0,8 C 3,2 km/h (1 Bft) 100,00 %
10.12.2016 22:18 0,7 C 94 % 1023,7 hPa 0,0 l/m 0,9 km/h (0 Bft) S 180 0 min 0,000 mm 0,0 UV-I 0 W/m -0,2 C 0,7 C 3,2 km/h (1 Bft) 100,00 %
10.12.2016 22:20 0,6 C 94 % 1023,7 hPa 0,0 l/m 0,5 km/h (0 Bft) S 180 0 min 0,000 mm 0,0 UV-I 0 W/m -0,3 C 0,6 C 3,2 km/h (1 Bft) 100,00 %
10.12.2016 22:22 0,5 C 94 % 1023,7 hPa 0,0 l/m 1,8 km/h (1 Bft) S 180 0 min 0,000 mm 0,0 UV-I 0 W/m -0,4 C 0,5 C 3,2 km/h (1 Bft) 97,87 %
10.12.2016 22:24 0,5 C 94 % 1023,8 hPa 0,0 l/m 3,3 km/h (1 Bft) S 180 0 min 0,000 mm 0,0 UV-I 0 W/m -0,4 C 0,5 C 4,8 km/h (1 Bft) 97,87 %
10.12.2016 22:26 0,5 C 94 % 1023,8 hPa 0,0 l/m 2,1 km/h (1 Bft) S 179 0 min 0,000 mm 0,0 UV-I 0 W/m -0,4 C 0,5 C 3,2 km/h (1 Bft) 100,00 %
10.12.2016 22:28 0,4 C 94 % 1023,7 hPa 0,0 l/m 2,7 km/h (1 Bft) S 180 0 min 0,000 mm 0,0 UV-I 0 W/m -0,5 C 0,4 C 4,8 km/h (1 Bft) 97,62 %
10.12.2016 22:30 0,4 C 94 % 1023,7 hPa 0,0 l/m 2,7 km/h (1 Bft) S 179 0 min 0,000 mm 0,0 UV-I 0 W/m -0,5 C 0,4 C 4,8 km/h (1 Bft) 98,18 %
10.12.2016 22:32 0,4 C 94 % 1023,7 hPa 0,0 l/m 2,7 km/h (1 Bft) S 180 0 min 0,000 mm 0,0 UV-I 0 W/m -0,5 C 0,4 C 3,2 km/h (1 Bft) 100,00 %
10.12.2016 22:34 0,4 C 95 % 1023,6 hPa 0,0 l/m 2,4 km/h (1 Bft) S 180 0 min 0,000 mm 0,0 UV-I 0 W/m -0,3 C 0,4 C 3,2 km/h (1 Bft) 100,00 %
10.12.2016 22:36 0,4 C 95 % 1023,7 hPa 0,0 l/m 2,6 km/h (1 Bft) S 180 0 min 0,000 mm 0,0 UV-I 0 W/m -0,3 C 0,4 C 3,2 km/h (1 Bft) 100,00 %
10.12.2016 22:38 0,4 C 95 % 1023,7 hPa 0,0 l/m 3,0 km/h (1 Bft) S 180 0 min 0,000 mm 0,0 UV-I 0 W/m -0,3 C 0,4 C 4,8 km/h (1 Bft) 100,00 %
10.12.2016 22:40 0,5 C 95 % 1023,7 hPa 0,0 l/m 3,0 km/h (1 Bft) S 180 0 min 0,000 mm 0,0 UV-I 0 W/m -0,2 C 0,5 C 4,8 km/h (1 Bft) 100,00 %
10.12.2016 22:42 0,6 C 95 % 1023,7 hPa 0,0 l/m 3,1 km/h (1 Bft) S 180 0 min 0,000 mm 0,0 UV-I 0 W/m -0,1 C 0,6 C 4,8 km/h (1 Bft) 100,00 %
10.12.2016 22:44 0,8 C 96 % 1023,7 hPa 0,0 l/m 2,7 km/h (1 Bft) S 180 0 min 0,000 mm 0,0 UV-I 0 W/m 0,2 C 0,8 C 3,2 km/h (1 Bft) 100,00 %
10.12.2016 22:46 0,8 C 95 % 1023,7 hPa 0,0 l/m 3,1 km/h (1 Bft) S 180 0 min 0,000 mm 0,0 UV-I 0 W/m 0,1 C 0,8 C 4,8 km/h (1 Bft) 96,92 %
10.12.2016 22:48 0,9 C 96 % 1023,7 hPa 0,0 l/m 3,9 km/h (1 Bft) S 180 0 min 0,000 mm 0,0 UV-I 0 W/m 0,3 C 0,9 C 4,8 km/h (1 Bft) 97,73 %
10.12.2016 22:50 0,8 C 95 % 1023,7 hPa 0,0 l/m 2,7 km/h (1 Bft) S 180 0 min 0,000 mm 0,0 UV-I 0 W/m 0,1 C 0,8 C 4,8 km/h (1 Bft) 96,00 %
10.12.2016 22:52 0,7 C 95 % 1023,7 hPa 0,0 l/m 2,0 km/h (1 Bft) S 180 0 min 0,000 mm 0,0 UV-I 0 W/m -0,0 C 0,7 C 3,2 km/h (1 Bft) 93,62 %
10.12.2016 22:54 0,5 C 94 % 1023,7 hPa 0,0 l/m 1,9 km/h (1 Bft) S 180 0 min 0,000 mm 0,0 UV-I 0 W/m -0,4 C 0,5 C 3,2 km/h (1 Bft) 98,00 %
10.12.2016 22:56 0,4 C 95 % 1023,7 hPa 0,0 l/m 2,4 km/h (1 Bft) S 180 0 min 0,000 mm 0,0 UV-I 0 W/m -0,3 C 0,4 C 3,2 km/h (1 Bft) 98,00 %
10.12.2016 22:58 0,3 C 95 % 1023,7 hPa 0,0 l/m 2,7 km/h (1 Bft) S 180 0 min 0,000 mm 0,0 UV-I 0 W/m -0,4 C 0,3 C 4,8 km/h (1 Bft) 97,87 %
10.12.2016 23:00 0,3 C 95 % 1023,7 hPa 0,0 l/m 2,2 km/h (1 Bft) S 180 0 min 0,000 mm 0,0 UV-I 0 W/m -0,4 C 0,3 C 4,8 km/h (1 Bft) 97,37 %
10.12.2016 23:02 0,3 C 95 % 1023,6 hPa 0,0 l/m 1,7 km/h (1 Bft) S 180 0 min 0,000 mm 0,0 UV-I 0 W/m -0,4 C 0,3 C 3,2 km/h (1 Bft) 97,87 %
10.12.2016 23:04 0,4 C 95 % 1023,6 hPa 0,0 l/m 1,9 km/h (1 Bft) S 180 0 min 0,000 mm 0,0 UV-I 0 W/m -0,3 C 0,4 C 3,2 km/h (1 Bft) 98,00 %
10.12.2016 23:06 0,4 C 95 % 1023,6 hPa 0,0 l/m 1,3 km/h (1 Bft) S 180 0 min 0,000 mm 0,0 UV-I 0 W/m -0,3 C 0,4 C 3,2 km/h (1 Bft) 97,87 %
10.12.2016 23:08 0,3 C 95 % 1023,6 hPa 0,0 l/m 0,5 km/h (0 Bft) S 180 0 min 0,000 mm 0,0 UV-I 0 W/m -0,4 C 0,3 C 1,6 km/h (1 Bft) 97,56 %
10.12.2016 23:10 0,4 C 95 % 1023,5 hPa 0,0 l/m 0,0 km/h (0 Bft) S 180 0 min 0,000 mm 0,0 UV-I 0 W/m -0,3 C 0,4 C 1,6 km/h (1 Bft) 96,00 %
10.12.2016 23:12 0,4 C 95 % 1023,5 hPa 0,0 l/m 0,0 km/h (0 Bft) S 180 0 min 0,000 mm 0,0 UV-I 0 W/m -0,3 C 0,4 C 0,0 km/h (0 Bft) 98,00 %
10.12.2016 23:14 0,6 C 96 % 1023,5 hPa 0,0 l/m 0,0 km/h (0 Bft) S 180 0 min 0,000 mm 0,0 UV-I 0 W/m 0,0 C 0,6 C 0,0 km/h (0 Bft) 97,92 %
10.12.2016 23:16 0,6 C 96 % 1023,5 hPa 0,0 l/m 1,7 km/h (1 Bft) S 180 0 min 0,000 mm 0,0 UV-I 0 W/m 0,0 C 0,6 C 3,2 km/h (1 Bft) 97,87 %
10.12.2016 23:18 0,7 C 96 % 1023,5 hPa 0,0 l/m 2,7 km/h (1 Bft) S 180 0 min 0,000 mm 0,0 UV-I 0 W/m 0,1 C 0,7 C 3,2 km/h (1 Bft) 97,37 %
10.12.2016 23:20 0,6 C 95 % 1023,5 hPa 0,0 l/m 2,5 km/h (1 Bft) S 180 0 min 0,000 mm 0,0 UV-I 0 W/m -0,1 C 0,6 C 3,2 km/h (1 Bft) 98,00 %
10.12.2016 23:22 0,6 C 95 % 1023,4 hPa 0,0 l/m 2,8 km/h (1 Bft) S 180 0 min 0,000 mm 0,0 UV-I 0 W/m -0,1 C 0,6 C 3,2 km/h (1 Bft) 97,92 %
10.12.2016 23:24 0,5 C 95 % 1023,4 hPa 0,0 l/m 3,4 km/h (1 Bft) S 180 0 min 0,000 mm 0,0 UV-I 0 W/m -0,2 C 0,5 C 4,8 km/h (1 Bft) 98,00 %
10.12.2016 23:26 0,4 C 95 % 1023,4 hPa 0,0 l/m 3,5 km/h (1 Bft) S 180 0 min 0,000 mm 0,0 UV-I 0 W/m -0,3 C 0,4 C 4,8 km/h (1 Bft) 94,00 %
10.12.2016 23:28 0,2 C 95 % 1023,4 hPa 0,0 l/m 3,7 km/h (1 Bft) S 180 0 min 0,000 mm 0,0 UV-I 0 W/m -0,5 C 0,2 C 4,8 km/h (1 Bft) 97,37 %
10.12.2016 23:30 0,1 C 95 % 1023,4 hPa 0,0 l/m 4,4 km/h (1 Bft) S 180 0 min 0,000 mm 0,0 UV-I 0 W/m -0,6 C 0,1 C 4,8 km/h (1 Bft) 95,74 %
10.12.2016 23:32 -0,1 C 95 % 1023,4 hPa 0,0 l/m 4,0 km/h (1 Bft) S 180 0 min 0,000 mm 0,0 UV-I 0 W/m -0,8 C -0,1 C 4,8 km/h (1 Bft) 100,00 %
10.12.2016 23:34 -0,1 C 95 % 1023,4 hPa 0,0 l/m 2,8 km/h (1 Bft) S 180 0 min 0,000 mm 0,0 UV-I 0 W/m -0,8 C -0,1 C 4,8 km/h (1 Bft) 100,00 %
10.12.2016 23:36 -0,1 C 95 % 1023,4 hPa 0,0 l/m 2,3 km/h (1 Bft) S 180 0 min 0,000 mm 0,0 UV-I 0 W/m -0,8 C -0,1 C 3,2 km/h (1 Bft) 100,00 %
10.12.2016 23:38 -0,1 C 95 % 1023,3 hPa 0,0 l/m 2,4 km/h (1 Bft) S 180 0 min 0,000 mm 0,0 UV-I 0 W/m -0,8 C -0,1 C 3,2 km/h (1 Bft) 100,00 %
10.12.2016 23:40 -0,1 C 96 % 1023,2 hPa 0,0 l/m 2,1 km/h (1 Bft) S 180 0 min 0,000 mm 0,0 UV-I 0 W/m -0,7 C -0,1 C 3,2 km/h (1 Bft) 100,00 %
10.12.2016 23:42 -0,1 C 95 % 1023,2 hPa 0,0 l/m 1,2 km/h (1 Bft) S 180 0 min 0,000 mm 0,0 UV-I 0 W/m -0,8 C -0,1 C 3,2 km/h (1 Bft) 100,00 %
10.12.2016 23:44 0,0 C 96 % 1023,1 hPa 0,0 l/m 0,8 km/h (0 Bft) S 180 0 min 0,000 mm 0,0 UV-I 0 W/m -0,6 C 0,0 C 3,2 km/h (1 Bft) 100,00 %
10.12.2016 23:46 0,0 C 96 % 1023,1 hPa 0,0 l/m 1,4 km/h (1 Bft) S 180 0 min 0,000 mm 0,0 UV-I 0 W/m -0,6 C 0,0 C 3,2 km/h (1 Bft) 100,00 %
10.12.2016 23:48 0,0 C 96 % 1023,1 hPa 0,0 l/m 1,7 km/h (1 Bft) S 180 0 min 0,000 mm 0,0 UV-I 0 W/m -0,6 C 0,0 C 3,2 km/h (1 Bft) 97,92 %
10.12.2016 23:50 0,1 C 96 % 1023,1 hPa 0,0 l/m 2,1 km/h (1 Bft) S 180 0 min 0,000 mm 0,0 UV-I 0 W/m -0,5 C 0,1 C 3,2 km/h (1 Bft) 100,00 %
10.12.2016 23:52 0,2 C 96 % 1023,0 hPa 0,0 l/m 1,9 km/h (1 Bft) S 180 0 min 0,000 mm 0,0 UV-I 0 W/m -0,4 C 0,2 C 3,2 km/h (1 Bft) 100,00 %
10.12.2016 23:54 0,3 C 96 % 1023,0 hPa 0,0 l/m 0,9 km/h (0 Bft) S 180 0 min 0,000 mm 0,0 UV-I 0 W/m -0,3 C 0,3 C 1,6 km/h (1 Bft) 100,00 %
10.12.2016 23:56 0,3 C 96 % 1023,0 hPa 0,0 l/m 1,5 km/h (1 Bft) S 180 0 min 0,000 mm 0,0 UV-I 0 W/m -0,3 C 0,3 C 3,2 km/h (1 Bft) 100,00 %
10.12.2016 23:58 0,3 C 96 % 1023,0 hPa 0,0 l/m 1,3 km/h (1 Bft) S 180 0 min 0,000 mm 0,0 UV-I 0 W/m -0,3 C 0,3 C 3,2 km/h (1 Bft) 100,00 %
_ Min-Zeit 23:36 14:26 23:52 - 00:12 - - - - - - 07:24 23:32 00:12 14:42
Minimum _ -0,2 C 57 % 1023,0 hPa - 0,0 km/h (0 Bft) - - - - - - -0,9 C -0,1 C 0,0 km/h (0 Bft) 90,00 %
_ Max-Zeit 13:44 22:44 00:00 00:00 10:52 - - 07:56 12:00 11:00 11:06 11:46 13:44 05:54 00:04
Maximum _ 8,9 C 96 % 1031,0 hPa 0,0 l/m 6,8 km/h
S-SW (2 Bft)
- - 2 min 0,153 mm 0,7 UV-I 348 W/m 3,1 C 8,9 C 11,3 km/h
S-SW (2 Bft)
100,00 %
Durchschnitt _ 3,5 C 83 % 1026,8 hPa #0,0 l/m 2,4 km/h (1 Bft) S - #8:02 h #0,737 mm 0,6 UV-I 183 W/m 0,9 C 3,5 C 4,2 km/h (1 Bft) 98,82 %